GFSWCAN_500_rhum_024.txt.gz
RH
100 100 100 100 100 100 100 100 100 99 100 93 83 69 51 39 49 53 39 35 23 20 23 25 25 18 11 11 12 12 14 14 14 13 11 10 9 10 9 9 10 9 9 9 9 9 10 10 8 8 8 7 9 14
98 94 100 99 100 100 100 100 99 97 84 76 59 49 43 49 57 65 34 35 28 20 20 26 27 24 17 16 15 14 14 15 14 12 12 12 10 10 11 11 11 10 10 9 9 8 9 7 6 7 7 9 13 16
100 100 100 100 100 100 100 100 90 76 68 54 48 50 54 64 56 58 36 38 31 19 20 25 27 26 21 18 17 14 13 14 14 14 14 12 10 11 11 11 11 10 10 9 8 9 8 7 8 11 16 20 25 29
98 100 99 95 87 79 69 62 60 56 61 75 72 63 70 66 70 93 39 32 74 57 27 23 28 27 25 22 19 17 17 16 16 15 14 12 10 10 10 10 9 8 8 7 7 10 12 19 22 26 32 39 41 42
100 100 100 100 99 90 87 84 84 82 74 91 83 83 85 83 84 39 26 62 100 98 69 35 26 27 27 24 22 20 19 18 17 16 14 12 11 10 9 8 8 9 8 8 13 20 25 35 42 43 41 41 46 49
100 100 73 53 61 80 93 81 85 87 99 98 100 97 69 71 27 76 98 76 95 96 90 69 29 27 25 24 24 22 21 19 17 15 13 11 10 9 7 8 9 15 19 22 29 38 40 37 37 41 45 50 50 45
50 53 74 94 94 88 74 84 95 98 99 96 56 38 33 25 35 67 90 100 100 100 56 34 29 24 22 21 21 21 20 19 17 14 12 10 10 9 8 9 19 33 41 38 37 36 36 39 37 38 38 36 46 81
100 100 94 91 100 100 100 97 100 100 100 92 57 54 56 51 94 100 100 100 90 69 63 43 29 27 26 27 27 27 24 20 16 12 11 11 11 14 16 35 45 45 47 39 34 27 28 35 43 46 48 62 80 78
86 91 98 100 100 100 100 100 99 97 100 99 99 91 97 100 100 100 100 100 100 100 100 96 88 72 51 42 33 26 20 16 13 13 19 22 27 35 41 39 41 41 36 30 29 42 66 69 66 70 77 79 82 82
100 100 100 97 95 100 100 100 100 99 97 97 89 82 88 100 99 93 84 74 68 55 50 35 29 24 25 27 29 24 25 26 23 34 43 42 37 42 48 44 38 38 37 36 40 55 75 84 86 87 85 83 82 80
100 100 100 100 100 98 93 100 94 100 93 100 92 97 98 88 92 82 73 56 46 39 40 46 51 54 66 61 72 69 60 60 51 46 49 47 49 55 58 54 46 40 44 61 81 90 92 91 88 86 84 84 85 82
99 99 100 100 100 100 99 94 88 93 96 100 100 100 98 88 76 72 68 74 77 81 92 97 94 97 99 99 87 69 63 60 54 57 51 44 55 61 72 81 87 85 85 86 84 82 84 86 89 89 86 79 74 69
92 93 91 100 95 99 100 100 95 100 100 98 94 92 97 100 100 100 100 100 100 100 100 96 90 86 83 81 80 64 50 43 47 52 56 54 65 80 82 78 82 85 84 86 89 90 88 82 76 72 70 61 35 48
100 100 100 97 99 95 98 100 100 100 100 100 100 100 99 97 90 92 96 96 92 87 85 88 86 84 84 80 74 73 71 70 64 59 64 88 90 90 85 89 94 92 90 87 84 81 76 59 29 10 8 20 42 71
96 97 95 90 97 99 100 100 100 100 100 100 97 98 98 97 82 58 52 51 55 72 91 99 95 88 89 88 87 84 82 78 76 84 92 95 95 97 96 93 91 91 89 76 48 18 6 7 8 8 14 15 14 18
95 96 99 100 100 100 99 100 100 100 99 100 99 96 88 77 78 84 87 94 99 99 98 98 96 97 100 100 100 100 100 98 99 100 100 98 98 97 92 82 60 32 10 6 6 7 7 8 8 8 9 12 20 34
100 100 100 100 100 100 100 100 99 100 100 100 100 98 95 94 96 100 100 100 100 100 100 100 100 100 100 100 100 100 100 100 100 99 97 90 73 46 23 10 6 6 7 8 8 8 8 9 9 10 14 24 40 59
100 100 100 100 100 100 100 100 100 100 100 100 100 100 100 100 100 100 100 100 100 100 100 100 100 100 100 100 98 97 94 84 69 48 27 15 9 6 6 7 7 8 8 9 9 9 10 10 12 16 29 48 72 77
100 100 100 100 100 100 100 99 99 100 100 100 100 100 100 100 100 100 100 100 100 100 100 100 97 88 77 64 48 28 14 8 7 6 7 8 8 8 8 9 10 10 10 10 11 12 12 19 34 52 75 90 88 72
93 97 98 100 100 100 100 100 99 100 100 99 100 100 100 100 100 100 96 84 64 47 29 19 15 12 9 8 7 7 8 8 9 9 10 11 11 11 11 11 11 11 11 13 14 22 43 63 77 95 94 76 56 50
54 57 43 36 37 43 65 90 87 83 71 55 42 38 36 30 27 16 9 9 7 7 7 8 8 8 9 9 10 10 10 11 11 12 12 12 12 12 12 13 14 16 18 19 31 80 97 97 99 99 85 68 64 63
24 33 20 19 22 17 15 14 13 13 13 14 13 12 11 10 10 10 10 11 11 11 11 11 11 11 11 11 11 11 11 11 11 12 12 12 14 15 17 19 21 24 33 71 99 100 100 100 100 90 80 77 74 70
15 15 16 16 16 16 16 16 15 14 14 13 13 13 13 13 12 12 12 12 12 12 12 12 12 12 12 13 13 13 13 14 14 15 16 18 21 24 29 40 59 87 100 100 100 100 100 98 91 86 82 74 59 37
15 14 14 13 13 14 14 14 13 13 12 12 11 11 10 10 10 11 11 11 11 10 10 10 10 10 10 10 11 12 15 18 22 26 42 53 74 96 100 100 100 100 100 100 100 100 97 91 87 78 61 40 23 20
22 16 15 16 16 17 17 17 16 16 15 15 14 14 13 12 12 11 10 10 10 9 9 9 10 11 14 16 22 30 52 82 98 100 100 100 100 100 100 100 100 100 100 100 95 90 87 77 54 34 23 23 24 24
23 20 17 16 17 16 16 15 14 14 13 13 13 13 15 16 18 23 25 28 33 40 44 36 42 90 100 100 100 100 100 100 100 100 100 100 100 100 100 100 100 100 98 90 79 59 37 28 27 29 30 26 26 28
20 18 18 18 19 20 22 30 32 30 27 31 34 35 35 34 36 38 37 38 44 51 60 69 78 84 95 100 100 100 100 100 100 99 97 100 100 100 96 94 90 71 53 38 30 31 36 38 35 28 27 29 28 21
18 20 20 22 25 30 29 29 30 34 36 46 50 55 59 62 66 62 57 57 58 62 67 72 81 87 91 89 90 93 94 100 100 98 88 76 62 49 39 36 37 39 41 45 48 44 34 27 26 28 28 24 21 22
28 31 37 38 41 43 43 41 39 38 37 36 36 36 38 37 43 48 54 56 57 59 58 56 48 46 41 36 37 38 39 40 40 41 43 46 47 48 48 48 49 48 44 37 30 28 28 30 32 27 23 22 24 30
47 50 52 48 43 38 33 31 29 29 28 27 27 27 28 32 36 42 46 47 48 49 46 43 41 42 45 46 47 47 46 48 56 63 64 60 54 46 42 39 38 36 35 34 34 35 35 33 28 24 24 27 34 39
40 34 30 28 29 32 40 43 45 42 34 29 26 24 23 26 30 35 39 42 43 46 48 50 51 51 49 49 49 47 48 54 66 68 65 53 44 41 40 41 41 40 38 38 37 34 27 22 23 26 31 37 41 41
31 33 34 36 38 36 33 31 30 27 25 24 25 37 55 59 50 39 38 44 51 55 56 54 53 54 54 51 48 54 67 72 72 64 55 50 49 49 48 48 45 42 41 39 30 21 22 25 27 33 41 45 44 36
32 31 30 30 32 32 28 25 24 26 31 33 54 64 64 61 61 58 57 56 55 54 56 57 54 51 55 67 72 68 54 38 29 26 26 27 28 31 33 33 32 28 24 22 25 26 27 27 28 30 37 42 40 33

GFSWCAN_500_rhum_030.txt.gz
RH
83 89 94 100 84 60 57 53 78 76 50 21 3 19 99 37 75 43 68 99 98 100 89 89 96 52 36 23 18 23 23 16 16 12 11 12 11 12 10 10 10 9 9 9 9 9 8 8 8 9 9 8 8 6
36 26 18 17 16 20 34 39 54 75 64 13 11 95 80 98 95 69 87 75 84 98 98 71 77 49 29 77 14 25 23 21 17 14 16 20 16 14 12 12 11 11 10 10 10 11 10 9 9 8 7 6 7 6
97 96 98 99 98 88 73 60 42 26 5 12 96 100 98 98 92 59 79 58 95 99 97 100 86 45 26 21 13 24 25 23 22 13 16 15 15 18 14 12 10 12 10 11 10 12 10 8 8 7 6 7 6 7
100 100 100 100 100 100 100 61 85 27 67 100 100 100 100 92 73 83 100 98 100 98 91 64 62 48 27 24 18 23 25 30 52 27 14 12 13 13 14 14 13 13 11 12 11 12 12 11 7 7 7 6 8 15
100 98 64 74 60 61 83 85 64 70 71 64 84 82 84 99 81 98 80 100 100 90 66 58 66 56 28 25 22 23 26 30 44 43 18 13 12 13 13 13 13 11 13 13 14 12 15 10 8 8 7 8 20 34
100 100 92 99 78 88 98 89 78 95 100 100 99 99 100 95 71 100 100 99 98 67 52 50 51 50 32 24 24 24 28 28 30 32 25 18 13 13 13 13 12 13 15 16 14 16 12 10 10 10 19 27 34 35
100 100 100 100 100 91 92 93 80 76 91 74 89 95 100 100 99 97 87 82 78 56 43 49 47 43 34 26 24 26 28 29 22 21 20 18 18 17 15 15 12 16 18 18 19 16 12 11 12 26 35 37 38 38
98 100 100 100 100 100 100 99 98 100 100 100 100 99 99 79 99 100 97 100 85 63 41 50 42 38 33 27 22 23 27 28 25 25 24 22 21 18 16 16 18 22 20 20 19 20 18 23 29 36 38 44 49 48
100 100 100 99 100 100 100 100 100 100 100 100 94 100 100 100 100 100 100 100 57 46 56 58 59 43 34 27 25 26 27 31 29 28 27 25 23 20 19 24 24 26 23 22 22 22 34 41 43 48 52 52 50 58
100 100 100 100 100 100 100 96 84 92 95 99 100 100 100 100 100 100 87 89 100 100 98 80 73 61 45 37 36 40 43 40 33 36 42 35 27 25 27 30 32 29 24 27 32 41 49 55 55 55 57 69 82 87
100 100 100 100 100 100 93 100 100 100 100 98 92 95 100 98 98 100 99 87 94 100 100 100 100 100 90 86 83 83 74 63 56 68 70 55 37 41 42 39 40 44 46 48 50 56 58 55 56 64 83 93 99 100
100 100 100 100 100 100 100 100 100 99 99 100 99 98 100 100 100 100 85 66 81 95 100 90 98 98 98 99 98 100 99 89 73 65 63 45 38 50 56 58 64 67 66 65 65 58 57 64 74 91 100 100 100 100
100 100 99 100 100 100 96 96 91 100 100 100 100 100 100 98 100 95 100 100 100 100 98 99 100 97 90 90 92 81 67 56 52 48 43 38 46 60 75 76 73 67 60 59 67 74 79 96 100 100 100 100 99 93
100 98 97 100 100 100 100 100 100 100 100 100 100 100 98 96 96 100 100 100 100 100 100 100 100 99 95 82 66 56 49 45 39 37 39 72 81 81 85 82 76 74 74 78 87 99 100 100 100 100 100 91 53 13
100 100 100 100 100 100 100 100 100 99 100 100 100 100 100 97 100 99 98 98 99 94 88 85 82 79 80 80 86 93 97 95 84 74 82 90 92 89 87 87 92 95 99 100 100 100 100 100 99 83 40 13 7 7
95 100 98 96 97 98 97 100 100 100 100 100 99 99 99 100 100 100 100 100 99 100 100 100 100 100 100 99 96 94 89 82 77 93 98 96 94 99 100 100 100 100 100 100 100 100 96 67 27 9 7 7 8 9
88 86 93 98 100 100 96 98 100 100 100 100 100 97 95 96 95 94 98 100 100 100 100 100 99 93 91 86 76 70 80 99 100 100 100 100 100 100 100 100 100 100 100 100 85 42 12 7 8 8 9 10 10 10
98 95 98 89 87 87 91 91 96 100 100 100 100 100 100 100 100 100 100 100 100 100 99 96 98 98 100 100 100 100 100 100 100 100 100 100 100 100 100 100 99 87 47 15 9 8 8 9 10 11 11 12 12 13
92 99 100 100 100 100 98 100 100 100 100 100 100 100 100 100 100 100 100 100 100 100 100 100 100 100 100 100 100 100 100 100 100 100 100 100 99 96 79 41 16 9 8 8 9 10 11 11 12 12 13 15 18 22
82 85 94 99 100 99 100 100 100 100 100 99 100 100 100 100 100 100 100 100 100 99 100 100 100 100 100 100 100 100 100 100 100 99 93 73 49 18 9 8 8 9 10 10 11 11 12 13 16 17 21 26 36 53
67 69 70 71 79 82 84 95 98 99 100 100 100 100 100 100 100 100 100 100 100 100 100 100 100 100 100 100 100 100 92 75 52 34 19 11 10 10 10 11 11 11 12 13 14 15 17 19 24 32 51 75 91 88
14 20 22 30 40 44 50 52 53 53 58 64 78 88 94 94 94 92 88 88 88 83 81 76 69 58 46 36 26 20 17 14 12 11 10 11 12 12 13 14 14 14 14 16 19 25 40 65 84 94 94 93 80 68
16 15 14 13 13 14 14 14 16 18 23 25 29 29 27 24 23 25 22 21 19 18 17 16 14 13 12 12 12 11 11 12 12 12 12 12 12 12 13 14 15 21 40 59 78 94 98 98 93 87 72 64 76 84
18 18 15 14 13 14 14 13 12 11 12 12 13 13 14 15 15 15 15 15 15 14 14 13 13 12 12 12 12 12 12 12 12 12 13 15 17 21 31 47 87 100 100 100 100 100 99 96 97 91 84 80 66 48
13 14 15 15 13 12 13 14 12 11 10 9 10 10 11 11 12 13 13 14 14 14 14 14 14 13 13 12 12 11 12 12 14 18 24 48 87 100 100 100 100 100 100 100 96 98 98 89 73 54 42 41 45 49
18 16 13 11 12 15 18 18 14 13 13 12 12 12 13 14 14 14 15 15 15 15 16 16 16 16 17 17 18 21 23 26 26 29 38 43 48 55 73 88 89 95 92 86 76 59 47 42 43 44 46 50 53 54
17 13 13 15 18 19 19 16 15 15 16 17 18 19 21 21 22 23 24 25 28 29 31 33 35 35 37 38 39 41 45 52 58 61 65 70 74 75 72 66 55 48 42 42 43 46 46 44 43 46 51 55 52 45
18 19 21 22 22 21 20 20 24 27 30 32 31 30 30 28 28 27 27 27 27 27 26 26 26 27 28 28 30 33 39 46 48 47 46 45 44 43 43 44 46 46 46 48 48 46 46 49 50 45 31 19 14 14
26 25 27 30 31 31 30 29 26 21 19 19 19 18 18 18 19 20 21 23 25 26 27 28 27 26 26 27 34 44 50 51 49 47 47 47 47 47 50 50 50 50 49 48 50 51 45 28 16 13 13 13 12 12
31 30 30 26 21 18 18 18 18 20 21 22 22 22 24 25 26 28 28 27 26 25 24 24 24 27 35 38 37 37 38 38 40 44 48 49 48 47 48 48 49 51 52 47 33 20 15 14 16 18 18 18 18 16
30 26 22 21 24 25 24 24 24 27 28 29 28 27 26 24 23 22 22 23 25 26 31 42 52 57 58 54 51 49 52 54 54 52 50 48 48 50 52 51 44 32 24 20 17 16 17 20 22 24 24 25 24 24
27 31 34 35 34 28 23 22 23 25 28 28 26 24 22 22 26 32 37 38 40 46 58 65 66 65 64 62 60 58 55 51 48 48 51 54 51 37 25 18 17 18 18 19 19 20 23 25 27 28 30 32 32 32
47 46 38 31 27 23 20 20 22 24 30 34 41 45 48 48 50 50 50 48 47 48 50 55 58 58 56 53 52 52 53 55 54 47 36 26 21 20 20 22 23 24 26 28 30 32 35 38 39 40 41 41 42 43

GFSWCAN_500_rhum_033.txt.gz
RH
100 98 74 47 73 100 85 53 82 100 100 100 100 50 2 2 2 3 3 2 3 32 77 62 68 58 70 48 32 40 76 94 58 30 48 14 11 9 7 10 12 19 24 25 24 20 14 10 8 8 9 9 9 9
62 59 88 98 99 100 90 52 59 93 100 97 68 22 2 2 2 3 14 8 6 61 100 91 75 45 44 41 30 43 81 92 46 28 19 14 16 12 12 10 10 9 9 9 10 10 10 9 8 8 8 9 9 7
74 82 90 93 94 95 92 60 65 96 100 100 81 6 2 2 20 4 46 54 52 89 100 99 79 52 89 74 42 63 44 98 43 33 22 19 17 13 14 14 11 10 11 12 12 11 10 9 8 8 9 11 9 8
25 43 61 76 80 85 83 67 54 76 88 92 47 3 2 6 41 100 56 58 42 92 100 92 79 78 46 29 39 45 57 91 38 32 20 20 21 21 23 23 18 13 12 13 14 12 11 10 9 9 10 10 9 9
100 90 59 23 22 26 31 44 47 34 38 30 6 2 15 88 76 47 53 76 99 100 98 97 87 87 70 63 84 98 44 35 30 32 23 20 20 20 22 17 17 16 14 15 14 14 13 13 14 15 16 14 10 10
100 100 99 47 47 46 47 51 67 30 15 4 2 59 100 100 84 59 50 87 99 100 99 100 88 82 94 100 100 85 100 48 25 32 28 26 28 27 21 17 16 15 14 14 15 13 12 13 17 20 17 14 13 15
100 98 89 49 88 100 100 63 31 12 4 6 87 91 100 88 54 90 93 100 100 100 100 99 99 99 100 98 84 56 40 28 19 29 36 38 41 48 36 21 19 17 14 16 16 14 15 18 22 19 18 18 18 24
100 89 56 70 50 67 61 72 36 58 96 97 87 92 78 75 51 100 100 100 97 99 91 85 80 94 94 80 60 45 35 23 22 23 28 33 31 31 31 27 23 19 20 20 22 22 20 20 22 23 21 22 32 42
100 100 84 79 44 33 44 64 74 47 59 64 76 85 95 97 96 98 100 100 98 96 95 91 71 64 66 56 53 46 35 31 24 23 29 33 29 26 22 21 24 23 22 25 28 29 28 26 24 23 25 36 47 58
98 94 89 93 91 50 45 46 48 65 52 73 86 99 99 99 99 88 80 79 95 82 75 61 57 53 50 59 46 41 43 33 30 23 26 25 26 29 27 28 32 31 30 33 35 34 37 33 30 38 49 54 61 60
100 100 100 89 100 94 99 98 79 73 72 54 76 44 51 47 96 100 95 100 93 77 64 56 49 62 60 56 54 48 48 43 37 32 33 28 30 35 40 52 61 61 55 48 44 41 41 44 54 66 67 65 61 64
100 100 100 99 96 95 98 100 98 85 68 68 72 90 96 100 99 72 76 64 55 47 47 51 77 79 86 79 68 70 74 74 69 66 65 54 54 69 84 94 91 78 62 53 50 57 65 75 75 67 65 73 84 98
100 100 99 100 100 99 94 99 100 100 100 100 100 100 100 97 92 74 74 76 79 92 86 84 99 100 100 100 99 99 98 98 93 82 84 93 100 100 99 89 76 68 65 67 88 86 86 80 76 79 92 100 100 100
100 100 100 98 100 100 97 90 84 92 98 97 95 98 91 99 88 84 83 94 90 95 100 96 94 98 100 100 94 82 77 85 90 93 90 90 89 84 73 67 84 92 91 93 89 88 90 96 100 100 100 100 100 100
98 89 98 100 100 100 100 100 100 100 100 100 95 95 81 92 93 99 100 94 97 95 94 98 100 100 100 99 98 94 94 85 81 77 70 66 73 92 100 100 96 94 100 98 99 100 100 100 100 100 100 100 98 74
100 85 95 98 97 100 100 100 100 100 100 100 97 96 95 99 98 97 100 100 100 100 100 99 95 95 95 96 92 90 84 76 79 94 99 99 98 94 96 100 98 100 100 100 100 100 100 100 100 100 95 68 32 12
94 100 100 100 100 100 98 96 100 100 100 100 99 100 100 100 100 100 100 100 98 100 100 100 100 99 98 100 100 100 100 100 100 97 93 89 96 100 100 100 100 100 100 100 100 100 100 100 83 42 22 10 9 10
79 82 91 99 100 100 100 100 100 100 100 100 100 100 100 100 100 100 100 100 100 100 99 100 100 100 100 99 99 100 98 97 100 100 100 100 100 100 100 100 100 100 100 100 100 98 85 42 13 9 10 10 11 12
90 94 94 92 87 84 91 99 100 100 100 100 100 100 100 100 100 100 100 100 100 100 100 100 100 100 100 100 100 100 100 100 99 96 95 97 100 100 100 100 100 100 99 94 58 21 13 11 11 12 12 14 15 16
68 74 81 88 99 100 100 100 100 100 100 100 100 100 100 100 100 100 100 100 100 100 100 100 100 100 100 100 100 100 99 100 100 100 100 100 100 100 100 100 96 67 28 14 12 12 12 13 13 14 16 18 20 22
71 73 76 81 87 99 100 100 100 100 100 100 100 100 99 100 100 100 100 100 100 100 100 100 100 100 100 100 100 100 100 100 100 100 100 100 100 96 78 42 17 13 12 12 13 13 13 14 16 18 24 39 50 70
35 37 47 56 60 64 71 82 92 96 97 96 98 98 99 99 100 100 100 100 100 100 100 100 100 100 100 100 100 100 100 99 96 91 78 51 29 17 14 13 13 13 13 13 13 15 17 22 28 51 67 72 84 85
12 12 12 12 13 15 16 17 19 21 27 30 35 39 45 53 49 52 49 42 34 33 36 38 37 40 43 44 39 37 30 21 16 14 13 13 13 13 13 14 14 16 20 26 30 38 56 84 100 97 97 100 100 97
10 10 10 9 9 10 10 9 9 8 8 9 10 10 10 10 10 11 13 14 15 16 16 16 16 16 15 15 15 14 14 14 14 14 14 14 14 14 15 22 32 37 52 80 89 93 94 100 100 100 100 100 85 64
15 13 11 13 12 11 10 10 9 8 8 9 10 10 9 9 10 9 10 11 12 14 14 15 15 16 16 15 15 15 15 15 14 14 15 16 18 21 25 32 42 50 56 66 73 84 93 99 100 94 70 51 41 40
17 17 16 14 14 12 11 10 9 10 11 12 12 12 12 12 13 14 14 15 16 16 16 16 16 16 17 17 19 20 23 26 28 30 31 33 36 43 49 58 68 70 78 81 82 76 64 51 45 43 43 44 46 45
24 20 18 16 14 13 12 12 12 12 14 16 16 17 18 19 20 21 23 24 23 24 23 23 24 25 26 27 27 27 27 27 27 28 28 29 33 40 46 48 50 49 47 46 46 46 46 46 45 45 46 46 46 46
22 21 20 18 16 16 16 18 21 23 24 23 21 20 18 17 17 17 17 16 16 16 17 18 19 20 22 23 24 24 24 25 26 26 27 33 45 48 49 49 48 45 43 43 45 46 46 48 50 49 48 46 34 23
30 26 22 21 22 24 25 25 22 19 18 17 17 17 17 18 18 19 20 20 20 21 22 23 24 25 25 24 24 24 24 24 25 30 32 34 37 41 43 44 47 50 53 52 50 48 47 48 48 40 24 17 17 17
26 25 25 27 26 24 22 20 20 21 21 22 22 22 23 26 28 28 27 26 25 23 22 21 21 21 23 25 27 30 36 46 53 54 55 54 53 53 56 56 54 52 49 48 49 51 45 33 22 18 18 18 20 21
29 29 29 26 26 26 28 28 27 26 24 22 20 20 21 23 25 27 27 24 22 22 27 33 36 36 36 40 49 59 65 65 67 65 64 61 58 55 52 51 51 52 51 46 34 26 23 23 25 26 29 30 32 34
29 30 29 30 34 33 31 28 24 22 21 23 28 30 30 33 34 36 40 46 47 49 50 51 50 49 48 49 50 52 53 54 54 56 58 58 57 54 49 41 33 27 25 26 30 34 38 42 44 46 46 46 46 46
29 33 38 38 34 30 28 23 23 29 40 44 47 48 49 50 54 58 58 59 60 59 57 56 56 58 60 63 66 65 62 57 50 41 32 28 26 30 33 40 47 54 60 66 70 74 78 82 84 86 89 87 82 74

GFSWCAN_500_rhum_036.txt.gz
RH
100 100 100 98 99 100 100 54 35 35 39 43 41 32 2 2 2 2 3 3 3 4 6 6 12 11 21 25 14 22 49 35 57 54 45 27 33 34 27 10 9 10 17 26 29 25 20 23 23 22 26 20 13 14
96 96 97 95 92 89 38 35 56 64 48 33 32 25 2 2 2 2 2 2 2 4 7 49 40 15 9 37 26 29 39 42 51 77 44 45 30 27 15 10 9 9 11 13 16 17 16 14 12 11 12 14 13 11
100 100 100 100 79 50 43 77 53 69 96 97 100 59 8 2 2 2 2 2 4 36 45 52 64 33 8 20 39 34 43 61 58 68 100 94 42 37 22 13 11 11 11 11 12 11 10 10 11 11 13 13 12 11
68 77 79 67 52 75 100 76 78 88 100 99 96 100 53 2 2 2 4 3 9 88 99 97 74 45 23 13 29 38 76 82 55 97 99 97 71 43 34 19 14 12 14 14 12 13 14 14 13 12 12 12 12 12
74 80 88 96 100 100 82 100 98 83 100 100 100 91 28 2 2 2 14 19 8 68 50 98 95 76 54 31 19 53 76 76 62 70 95 70 53 46 32 23 16 15 18 20 18 17 17 16 14 12 11 10 10 10
40 63 82 96 100 100 78 71 79 99 81 92 62 46 4 1 2 7 100 100 53 15 88 94 85 100 89 79 42 84 75 73 64 54 85 98 60 46 35 22 19 24 25 20 20 19 19 18 18 16 15 15 16 18
96 45 31 60 81 88 80 73 85 88 95 92 37 12 1 1 3 26 33 35 70 64 81 74 72 81 100 87 91 97 96 62 65 63 66 100 93 51 32 24 21 21 21 24 28 25 22 21 20 20 20 20 21 24
100 100 88 34 22 22 48 64 58 60 54 35 8 2 1 2 86 100 71 70 84 56 99 94 84 97 92 95 96 90 86 79 96 92 84 80 79 48 36 28 29 30 36 43 43 36 28 23 21 23 24 25 29 29
76 82 86 79 45 22 14 17 21 20 20 2 1 1 9 26 69 95 98 100 91 100 100 97 99 100 96 88 86 87 96 96 100 97 97 90 56 40 32 36 43 41 37 32 28 26 25 26 28 32 34 36 36 37
56 45 40 7 4 5 9 14 17 11 6 5 67 99 95 93 96 99 100 100 100 100 100 98 99 100 97 96 96 95 100 94 76 67 59 53 41 30 27 31 32 36 35 34 40 49 42 38 46 48 49 49 46 50
55 55 34 39 36 48 68 62 59 13 37 94 100 100 100 100 100 100 100 100 100 98 76 65 65 67 83 94 95 97 87 69 55 49 53 47 39 38 38 37 39 46 57 63 73 71 69 75 76 70 60 57 66 78
81 61 75 35 29 43 44 94 95 75 100 100 98 97 98 98 100 98 97 85 78 82 60 44 50 56 58 56 59 60 57 56 54 52 61 51 40 45 53 64 75 83 91 92 96 97 94 88 80 70 69 83 92 89
97 96 59 73 66 35 45 67 100 99 100 100 100 100 100 91 96 97 92 81 68 82 94 85 76 68 63 66 58 64 78 74 69 77 74 72 78 83 86 98 93 85 89 98 98 98 94 78 82 96 96 93 94 99
92 89 89 82 76 85 53 100 98 89 97 89 97 100 100 100 100 100 100 100 98 100 84 82 63 68 86 93 91 94 93 96 96 89 90 99 100 100 100 100 100 100 99 96 94 96 100 100 99 97 98 100 100 100
100 100 98 89 100 96 82 78 81 80 80 92 88 82 92 100 100 100 100 99 89 86 88 83 97 97 100 100 99 99 100 96 85 83 98 100 100 100 99 97 97 98 100 100 100 100 100 100 100 100 100 100 100 100
100 100 99 100 100 100 100 100 100 100 100 100 100 100 100 100 100 100 100 92 83 73 79 74 86 98 96 85 76 80 75 74 90 100 100 98 96 97 100 100 100 100 100 100 100 100 100 100 100 100 100 100 100 100
100 98 85 96 96 100 100 100 100 100 100 99 95 95 94 98 94 93 95 96 93 97 99 99 100 100 100 100 100 100 100 100 100 96 98 100 100 100 100 97 97 100 100 99 99 100 100 100 100 100 100 100 99 84
88 87 90 95 96 91 94 90 87 94 95 97 92 89 98 100 99 98 100 100 100 100 100 100 100 100 99 97 93 95 92 96 100 100 100 100 100 100 98 98 98 100 100 100 100 100 100 100 100 99 98 73 35 15
78 84 95 98 99 100 98 96 80 85 91 92 94 98 92 93 97 100 99 100 100 100 100 100 100 100 100 100 100 100 100 100 100 100 100 99 98 99 100 100 100 100 100 100 100 100 100 100 87 60 34 20 14 16
74 77 83 85 88 96 100 100 100 100 100 100 100 100 100 100 100 99 100 100 100 100 100 100 100 100 100 100 100 100 100 100 99 99 100 99 99 100 100 100 100 100 100 100 100 98 87 64 42 25 17 15 14 18
73 75 72 82 93 99 100 100 97 99 100 100 100 100 100 100 100 100 100 100 100 100 100 100 100 100 100 100 100 100 100 100 100 100 100 100 100 100 100 100 100 100 98 94 78 52 27 19 16 16 19 23 23 28
58 57 67 79 79 86 94 98 100 100 100 100 99 97 99 100 100 100 100 100 100 100 100 100 100 100 100 100 100 100 100 100 100 100 100 100 100 100 95 91 80 54 34 25 18 15 16 21 29 43 51 55 65 76
10 11 11 10 13 14 21 18 19 16 20 25 36 46 54 71 83 93 98 100 100 99 99 98 97 95 93 90 86 88 88 92 91 90 87 80 65 47 35 31 25 18 17 19 27 33 42 66 64 56 60 62 73 84
10 10 9 8 7 7 7 6 6 6 6 7 6 6 6 6 7 8 9 10 11 12 17 24 29 38 45 45 44 38 28 23 20 18 17 16 16 17 18 18 18 19 21 25 30 38 44 46 57 74 90 97 99 100
12 12 11 10 10 10 10 11 10 10 7 7 8 9 8 8 8 8 9 9 10 11 11 12 13 14 15 16 17 18 17 17 17 18 18 19 20 22 25 28 30 34 37 43 47 52 57 64 75 82 75 62 52 49
24 25 22 20 18 18 17 15 14 13 13 13 11 11 12 13 14 14 14 15 15 16 17 18 18 19 19 20 20 20 20 22 23 25 26 28 28 29 29 30 32 36 39 41 47 53 55 55 55 54 54 52 51 49
39 34 30 26 23 21 18 18 17 17 16 14 15 16 17 18 18 18 18 17 16 16 16 16 16 16 16 15 14 14 15 15 16 18 20 22 23 24 26 27 28 30 33 38 43 47 48 48 48 48 47 45 46 49
39 35 34 30 28 26 20 20 21 19 18 18 18 18 17 16 16 16 16 16 16 17 17 18 18 18 18 18 19 20 20 21 23 24 25 24 24 24 24 25 27 32 38 43 47 48 49 50 54 61 66 65 62 57
44 45 45 43 34 26 26 25 22 21 21 20 19 17 18 18 20 20 20 21 22 25 26 26 26 26 25 24 23 22 21 20 20 22 24 28 32 41 48 55 61 64 66 69 70 71 70 69 66 61 59 55 51 43
58 53 41 31 29 26 24 23 22 20 20 19 20 22 23 24 23 22 20 20 20 22 24 27 28 27 25 24 27 32 37 37 37 39 40 43 48 52 54 55 56 56 56 56 57 58 55 50 44 36 31 30 31 34
40 35 32 28 24 20 18 19 20 23 25 24 22 21 21 22 23 25 26 27 30 32 35 39 42 45 49 51 51 50 51 52 51 51 52 52 52 52 51 49 46 41 37 33 32 32 34 39 44 50 56 62 68 74
32 24 21 20 20 22 26 29 29 29 27 22 25 32 38 40 44 46 47 49 52 55 56 56 56 57 57 57 56 56 56 55 53 45 36 30 27 27 26 28 30 32 32 32 30 29 28 28 30 31 33 37 42 50
23 22 22 26 30 34 38 40 40 33 27 31 38 42 46 51 54 55 59 63 65 65 64 63 62 60 54 43 32 26 24 24 25 24 23 21 19 19 19 18 18 18 18 18 18 18 19 19 20 20 21 22 25 28

GFSWCAN_500_rhum_042.txt.gz
RH
96 100 100 90 86 98 100 100 100 100 100 100 100 100 100 70 46 34 21 6 3 3 4 7 10 12 17 19 19 18 14 39 19 26 58 73 74 87 100 75 52 44 40 45 40 24 22 16 8 14 25 22 24 24
100 96 98 100 100 100 100 100 100 100 100 100 100 100 92 47 40 36 23 14 3 3 3 5 8 10 13 18 16 15 20 27 27 19 28 52 82 81 86 68 56 46 31 37 44 35 35 10 10 16 25 27 24 24
100 100 100 100 100 100 100 100 100 100 100 100 100 99 83 47 41 38 29 18 7 2 2 4 5 7 10 14 14 14 13 29 27 24 34 53 66 73 54 62 74 58 38 38 45 44 37 10 11 12 12 14 15 15
98 99 100 100 100 100 100 100 100 100 100 100 100 86 60 50 42 37 34 22 12 3 2 3 4 6 7 7 12 12 10 13 19 20 28 44 50 57 67 80 97 74 63 49 36 40 26 15 14 14 15 15 16 18
100 100 100 100 100 100 100 100 100 100 100 95 76 56 45 38 25 24 51 100 83 19 6 3 4 5 9 15 8 9 9 9 10 40 40 30 38 55 76 90 84 91 87 66 44 57 26 18 17 18 20 20 21 21
100 100 97 94 100 100 100 100 100 100 92 85 79 71 53 35 26 21 78 100 100 98 23 4 20 14 15 25 17 9 10 9 10 24 44 72 54 47 70 75 93 98 98 100 91 66 52 40 29 24 26 29 27 25
100 100 100 94 80 55 51 44 36 32 32 31 35 36 34 32 28 23 93 100 100 100 73 19 52 15 16 54 45 24 13 12 31 15 11 37 68 69 97 80 98 86 97 100 100 83 61 58 47 34 30 31 31 28
100 99 95 77 60 47 42 49 54 58 52 28 27 40 43 35 51 86 91 100 99 100 100 100 56 38 74 86 78 63 35 18 25 31 31 54 75 75 75 85 89 100 100 99 96 98 100 88 63 59 51 43 39 41
96 80 74 67 60 71 71 87 78 100 65 31 22 21 26 35 52 52 82 97 100 98 52 98 79 44 25 99 100 95 75 78 58 25 29 46 58 45 57 76 76 87 77 89 99 100 87 98 71 65 63 64 60 57
80 74 68 63 67 77 79 82 91 95 85 100 100 100 95 84 100 100 100 100 100 94 32 9 18 100 45 67 100 96 98 81 71 50 40 50 36 53 64 73 94 100 93 84 74 83 100 100 83 69 78 73 68 64
65 65 68 65 83 94 87 74 77 96 100 100 100 100 58 75 90 96 100 100 93 53 64 98 100 99 97 86 79 91 94 97 89 68 60 53 46 66 74 93 100 98 99 100 100 95 99 97 92 91 73 67 76 100
63 70 62 55 60 53 46 42 61 59 53 58 57 21 50 99 85 69 66 89 65 37 88 100 99 96 100 98 100 100 92 95 98 89 89 79 69 83 99 99 99 99 99 99 98 99 97 81 68 58 58 66 96 100
12 19 35 80 98 100 95 75 75 100 100 100 100 100 97 84 94 62 50 80 100 75 69 83 76 100 90 97 100 100 100 100 99 100 96 99 100 100 100 99 97 96 88 84 82 80 69 66 68 71 99 100 99 94
93 100 89 100 100 100 100 100 79 53 99 85 97 92 98 100 100 94 100 100 100 100 56 10 41 89 100 99 86 100 100 97 99 99 100 100 100 100 99 98 96 84 72 72 82 89 95 100 100 100 98 100 100 100
100 100 99 99 100 98 62 72 66 61 77 84 84 99 83 77 85 100 100 100 100 100 100 99 98 100 100 99 98 93 91 88 94 91 77 66 60 62 68 74 82 89 94 100 100 100 100 98 98 100 98 95 95 99
100 100 100 100 100 100 100 100 100 100 100 100 100 100 100 100 100 100 99 95 99 90 82 72 76 80 83 74 68 68 65 61 63 78 95 94 97 97 96 100 98 96 91 93 100 100 100 100 95 97 100 100 100 100
78 81 85 98 100 100 100 100 100 100 98 99 100 100 100 100 98 95 95 92 91 95 94 87 81 92 79 75 78 74 73 89 100 100 100 100 100 100 100 100 100 100 100 100 100 97 96 100 100 100 100 100 100 100
96 94 80 92 100 85 90 100 88 83 78 84 87 97 96 96 91 77 73 73 77 80 79 93 97 94 89 94 100 100 100 100 100 100 100 100 100 100 100 100 100 100 100 100 100 100 100 100 100 100 100 100 100 100
100 100 100 97 100 100 98 99 100 95 92 96 97 94 89 81 79 86 87 87 88 92 91 97 97 100 100 100 95 89 93 95 96 98 100 100 100 100 100 100 100 100 99 100 100 100 100 100 100 100 100 100 100 100
100 100 100 100 98 99 100 99 98 100 100 100 96 100 100 99 98 97 98 98 98 94 90 96 97 96 98 97 93 95 92 90 89 84 83 89 90 89 91 95 100 100 100 100 100 100 100 100 100 100 100 100 100 100
100 100 100 100 100 100 100 100 100 100 100 100 100 100 97 92 92 92 95 98 100 100 100 100 99 100 100 100 100 100 99 100 97 95 95 99 100 100 100 100 100 100 100 100 100 100 100 100 100 100 100 100 99 99
90 94 97 96 94 98 100 100 100 100 100 100 100 100 99 99 99 98 99 99 100 97 99 100 100 100 100 100 100 100 100 100 100 100 100 100 100 100 100 100 100 100 100 100 100 100 100 100 98 92 82 68 54 44
47 54 37 30 37 47 47 50 33 24 25 18 18 16 15 14 16 27 17 20 17 23 26 33 38 53 67 83 96 100 100 100 100 100 100 100 100 100 100 100 100 100 99 97 88 79 67 57 46 37 32 31 36 42
7 8 7 7 7 7 7 7 7 8 8 8 9 10 8 8 8 8 8 8 8 8 8 7 7 8 9 10 10 12 14 17 25 33 47 50 54 52 51 48 44 37 33 28 26 25 24 25 25 26 27 31 34 34
8 8 7 7 8 8 11 13 14 14 15 16 16 14 14 14 13 13 13 15 17 16 15 12 10 10 11 12 13 15 16 16 17 18 19 19 20 20 20 20 19 18 17 16 15 14 14 15 16 18 20 21 22 23
9 8 10 12 14 16 17 18 18 18 17 19 20 18 18 21 23 24 26 26 26 22 18 14 14 14 15 16 17 17 16 16 16 16 15 14 14 14 13 13 13 13 14 15 16 17 18 19 19 20 20 22 24 28
16 17 18 18 19 19 20 24 25 26 26 27 25 30 33 36 37 34 32 27 20 14 13 14 16 17 16 16 16 16 16 15 15 15 15 15 16 18 19 20 21 21 21 21 20 20 23 27 32 35 36 37 36 36
23 22 21 20 20 23 28 36 40 40 41 40 38 42 43 40 34 28 20 15 14 16 17 19 20 20 21 21 22 22 22 20 19 18 17 17 17 20 21 22 23 25 28 32 34 33 31 27 22 17 15 14 14 14
25 25 25 29 35 47 56 56 55 50 46 47 46 42 30 20 16 15 18 21 21 21 21 20 21 21 21 22 22 22 21 21 20 22 22 25 27 32 37 37 35 33 28 21 15 13 13 13 13 12 12 13 14 16
32 34 47 62 68 66 61 54 50 49 43 32 20 14 15 18 21 23 24 23 22 23 28 32 35 38 39 40 40 41 42 43 44 44 44 41 37 31 24 17 14 14 15 15 15 14 14 14 14 14 14 14 15 16
61 67 70 71 68 62 56 47 39 23 16 17 19 20 23 25 26 24 24 26 34 41 44 44 45 46 49 50 49 46 42 35 29 23 17 16 15 16 17 16 16 15 16 16 16 17 17 17 18 18 17 17 18 18
76 73 66 60 54 45 34 17 15 21 25 26 27 27 30 28 30 33 35 40 43 44 48 51 52 48 38 26 20 18 19 18 18 17 18 18 17 17 17 17 17 17 18 18 18 18 18 19 20 20 20 20 22 21
63 60 54 43 27 17 16 19 26 29 31 29 30 30 30 39 47 50 52 53 49 42 32 22 19 19 23 24 21 19 18 19 18 18 18 18 19 20 20 21 21 21 21 21 21 21 21 22 22 23 23 22 24 25

GFSWCAN_500_rhum_045.txt.gz
RH
100 53 84 94 96 94 100 86 83 91 100 100 100 100 100 100 100 100 86 51 25 8 4 4 6 11 15 16 14 13 8 42 93 81 81 81 69 89 100 79 75 94 91 71 61 39 16 32 23 28 22 8 9 16
100 92 64 77 99 95 90 100 100 100 96 100 100 100 100 100 100 99 82 46 26 14 49 5 5 8 12 14 13 11 9 10 52 92 74 70 75 77 96 99 74 80 92 91 65 56 38 40 40 50 18 9 9 12
100 100 83 66 80 80 100 100 97 100 100 100 100 100 100 100 100 81 65 44 25 15 100 77 10 4 7 10 14 15 13 12 37 80 78 69 64 66 83 95 90 86 99 97 98 86 59 34 46 56 18 9 9 10
100 100 100 94 99 100 100 100 100 100 100 100 100 100 100 100 100 83 53 31 26 21 48 70 96 40 27 11 11 15 16 14 16 37 61 58 54 46 56 78 96 88 95 99 91 85 47 36 44 49 28 11 12 13
100 100 100 100 99 100 100 100 100 100 99 100 100 100 100 100 99 64 44 30 27 50 40 100 69 98 65 51 24 10 13 16 14 19 32 32 41 40 32 30 51 68 79 95 93 100 80 60 49 41 32 18 17 18
100 98 100 100 100 100 98 98 99 100 99 98 100 100 100 100 78 46 43 36 29 21 34 47 60 52 83 36 52 37 12 11 14 14 15 19 19 40 48 39 40 49 64 87 88 100 99 98 50 42 49 31 26 24
100 100 100 100 100 100 100 100 100 100 100 100 100 100 100 78 56 44 30 49 43 34 67 45 25 28 54 67 29 23 40 11 12 14 14 12 14 54 66 52 30 31 40 69 91 92 99 100 100 97 72 69 65 44
93 79 66 56 52 50 52 60 81 96 99 97 84 75 61 42 32 26 34 47 66 70 65 65 20 9 21 60 47 24 44 33 10 12 12 12 11 15 35 49 66 47 61 64 62 97 98 99 99 100 92 82 81 89
100 83 63 61 57 49 42 34 32 36 44 69 86 79 69 53 34 34 51 89 85 99 96 47 54 42 51 17 22 23 17 19 21 13 10 11 11 16 25 22 22 57 64 80 99 99 98 96 81 83 91 100 100 98
76 77 74 66 72 69 66 56 29 22 20 22 30 41 43 38 35 34 36 72 100 100 100 100 96 94 68 28 43 93 60 57 28 22 19 17 17 16 24 25 21 34 82 89 94 91 90 97 100 100 95 100 99 100
74 71 74 74 74 67 86 79 56 66 74 70 52 43 40 35 43 44 74 100 100 100 100 100 61 64 36 36 99 99 100 100 90 55 53 46 51 44 29 24 31 48 55 57 60 72 90 97 100 100 98 100 100 100
61 61 60 61 66 68 79 86 90 97 92 100 60 38 30 57 67 58 82 100 98 100 100 100 100 90 67 58 85 99 78 79 100 100 100 70 55 62 65 47 46 58 69 72 91 81 97 100 100 100 100 99 100 100
28 33 36 46 65 91 100 100 100 89 96 70 87 84 89 90 81 82 96 100 95 68 40 38 34 30 67 79 56 56 41 70 100 100 93 74 83 98 100 99 74 66 75 97 100 100 99 100 100 99 99 97 91 92
83 100 90 100 100 88 93 84 100 90 63 64 72 67 67 71 86 96 80 66 82 75 66 34 25 100 100 100 96 100 100 99 100 99 92 100 100 100 100 100 100 100 99 100 100 98 88 81 89 94 100 99 97 99
99 86 98 97 94 93 90 95 100 100 90 93 99 100 100 100 90 96 100 100 98 94 78 77 68 62 82 75 63 70 72 77 93 100 100 100 99 98 96 92 67 54 62 77 78 76 89 99 100 100 100 100 100 100
95 98 98 99 100 98 96 94 100 100 99 100 100 100 100 100 100 100 100 100 100 100 97 77 95 93 95 93 93 95 98 100 98 97 100 96 91 98 96 91 95 92 76 80 97 100 100 100 100 100 100 100 100 100
100 100 100 100 100 100 100 100 100 100 100 100 100 100 100 100 100 100 100 100 100 100 100 98 93 89 87 78 75 80 74 71 70 72 79 93 100 100 100 100 100 100 100 100 100 100 100 100 100 100 100 100 100 97
100 100 100 100 100 100 100 100 100 98 100 100 100 100 100 100 100 100 96 90 89 86 80 72 76 73 75 72 72 93 100 100 100 100 100 100 100 100 100 98 94 90 94 98 100 100 98 99 97 96 96 97 100 100
100 100 100 99 100 100 100 100 100 100 100 96 96 89 89 94 96 99 100 97 95 95 96 98 94 95 100 100 100 100 100 100 100 100 100 100 100 100 100 100 100 100 100 100 100 100 100 99 99 100 100 100 100 100
100 100 100 90 98 100 100 100 100 100 99 100 100 100 94 87 86 92 99 100 100 100 100 100 94 86 87 94 100 100 100 100 100 100 100 100 100 100 100 100 100 100 100 100 100 100 100 100 100 100 100 100 100 100
100 100 100 100 100 100 98 100 100 100 100 100 100 100 100 100 100 100 100 100 100 100 96 94 93 95 100 100 100 100 100 100 100 100 100 100 100 100 100 100 100 100 100 100 100 100 100 100 100 100 100 100 100 100
100 100 100 100 100 100 100 100 99 99 97 96 98 95 93 92 94 95 95 97 94 95 97 98 99 100 100 100 100 100 100 100 100 100 100 100 100 100 99 100 100 100 100 100 100 100 100 100 100 100 100 99 95 89
76 71 65 52 37 33 34 55 42 37 33 30 26 22 19 18 17 22 17 18 18 18 19 20 20 22 24 20 20 21 29 37 54 74 92 99 100 100 100 100 100 100 100 100 100 98 94 89 82 70 57 42 27 20
15 15 10 8 8 8 8 8 9 10 9 10 9 9 8 8 8 9 9 9 8 8 7 7 7 8 9 9 9 9 8 8 8 9 11 12 14 18 23 28 30 31 33 28 27 23 20 18 16 15 14 14 14 15
19 12 8 8 9 9 9 12 13 13 13 12 11 10 10 11 11 12 12 12 12 13 14 15 16 18 20 20 20 18 14 12 11 12 14 16 18 19 19 19 18 16 15 14 13 13 13 14 14 15 16 17 18 19
15 12 11 11 12 14 17 16 18 20 20 21 22 22 18 15 18 20 21 21 21 24 24 23 22 22 20 17 14 13 13 14 15 15 15 15 14 14 14 14 14 14 13 14 14 14 15 16 17 18 19 21 23 25
14 14 15 17 19 19 19 19 20 22 24 26 25 26 26 28 26 26 25 24 24 23 20 17 15 14 16 18 19 19 19 19 20 19 19 19 19 19 18 18 18 17 16 16 16 20 24 27 28 25 19 14 12 13
19 21 22 22 21 21 20 21 23 26 29 33 34 34 30 27 27 26 24 22 18 15 14 15 18 20 21 21 20 20 21 21 21 21 21 21 21 21 21 22 25 29 32 33 30 25 17 14 13 14 14 15 15 16
25 25 24 23 22 22 22 28 31 35 37 38 34 30 30 29 26 21 16 15 15 17 20 23 22 22 23 27 33 36 38 38 38 37 37 38 38 38 37 33 27 21 15 14 14 15 15 15 16 16 17 17 18 18
26 24 23 22 22 26 35 41 42 40 34 30 30 30 24 18 17 18 18 19 22 24 25 26 30 37 40 40 41 42 44 45 44 39 33 26 21 17 15 16 16 17 17 17 17 17 17 18 18 19 20 20 20 20
27 27 28 34 42 46 45 39 32 29 29 28 22 17 17 20 20 20 22 25 28 31 36 39 41 43 45 47 45 36 25 20 18 17 16 17 18 17 17 18 19 20 21 21 21 22 22 22 23 23 22 22 22 23
41 48 51 50 44 38 34 31 30 27 21 16 19 23 23 20 22 24 33 42 45 47 47 46 41 29 20 18 19 19 18 18 18 18 18 19 20 21 22 22 21 21 21 21 22 23 26 29 30 28 27 26 26 26
60 55 49 41 37 36 32 26 20 16 21 25 25 21 21 24 33 37 36 30 24 20 18 17 19 23 21 19 18 19 18 19 20 22 22 21 20 20 20 21 21 21 22 22 22 24 29 35 41 39 33 31 30 30

GFSWCAN_500_rhum_048.txt.gz
RH
100 68 75 76 85 65 84 78 87 99 88 83 83 95 100 100 92 97 100 100 100 65 41 35 51 9 6 18 45 12 13 17 86 95 84 39 44 82 94 100 83 80 92 86 99 80 44 42 45 28 33 25 23 19
92 58 88 65 98 92 90 82 88 89 93 89 98 100 89 100 98 100 100 97 66 51 40 32 42 46 22 19 45 11 17 18 72 81 95 75 55 56 84 95 100 98 95 89 63 60 74 72 57 38 37 40 36 28
84 45 93 100 99 97 91 77 85 77 82 100 98 96 100 100 100 100 100 86 77 47 60 45 40 43 90 60 10 17 12 16 26 46 50 96 83 65 57 64 76 98 100 85 84 91 89 100 78 67 44 40 42 38
98 51 72 100 94 99 84 95 100 100 100 100 100 100 100 100 99 100 100 100 74 58 45 70 90 27 39 36 10 10 12 12 12 11 27 78 83 77 70 69 70 98 98 87 79 79 92 98 96 85 61 37 38 45
100 100 88 91 100 91 93 98 100 98 100 100 100 100 100 98 100 100 100 99 87 37 33 100 100 52 30 30 17 7 11 12 18 10 14 35 44 59 76 78 59 75 86 83 81 97 100 98 98 83 48 32 30 29
100 100 100 100 94 89 97 94 100 100 100 99 98 95 96 100 100 100 95 76 32 61 100 100 100 76 99 94 44 9 8 13 13 15 18 12 15 31 51 57 57 55 69 96 95 100 98 100 99 98 81 69 46 41
100 100 100 100 100 99 100 100 99 98 99 100 100 100 100 100 100 90 46 41 31 47 100 100 100 97 89 95 99 40 12 9 13 14 15 26 40 20 30 43 47 53 75 44 59 90 86 96 92 98 96 100 99 94
97 97 100 100 100 100 100 100 100 100 99 100 100 100 95 92 72 46 42 42 42 28 70 98 100 100 100 95 78 48 49 31 33 20 15 16 17 16 20 21 27 38 79 90 68 37 46 83 85 87 88 97 99 94
66 63 65 74 93 100 100 100 100 97 96 94 90 87 99 61 50 44 30 33 43 41 83 87 70 81 92 77 72 70 42 26 42 26 16 15 15 18 17 16 16 20 26 29 49 71 39 32 57 57 69 99 98 98
55 49 44 40 35 36 59 93 100 98 96 98 96 80 54 36 31 32 35 40 50 86 69 66 100 100 84 76 75 62 59 33 32 51 46 23 18 17 16 15 13 14 16 18 20 18 43 70 60 56 92 98 96 94
58 58 62 55 37 27 24 25 45 93 99 82 61 41 40 31 33 34 35 61 92 100 100 100 69 50 60 72 48 26 24 23 21 22 30 30 27 20 17 14 15 16 18 22 29 31 21 24 67 82 81 74 78 81
67 66 94 100 95 84 53 42 26 35 59 74 70 56 46 33 26 27 47 64 98 98 100 90 92 98 89 93 58 40 85 100 99 76 82 67 61 44 34 34 48 58 48 41 35 30 31 36 47 48 56 74 81 88
77 83 74 67 68 72 65 62 46 32 28 32 38 32 27 25 26 70 94 100 100 100 100 100 100 100 100 64 55 86 86 90 93 90 86 96 81 85 92 83 80 87 87 84 76 46 36 61 81 81 95 92 98 100
100 100 75 71 51 52 95 93 60 44 36 37 35 24 26 55 72 95 100 100 100 100 99 84 87 100 100 89 92 97 99 99 85 85 90 100 92 90 94 95 88 99 99 96 98 100 100 100 100 87 81 98 98 99
91 72 73 76 74 75 72 83 80 71 63 49 48 58 55 68 66 86 70 97 100 100 58 87 59 100 100 94 40 55 92 94 64 72 96 98 92 95 100 100 100 100 100 100 100 99 100 100 99 98 98 95 100 99
82 87 93 100 100 100 99 100 100 100 100 100 98 99 100 93 84 64 89 100 93 91 96 100 100 95 99 82 72 60 66 75 88 82 78 95 100 98 99 96 94 94 92 86 88 93 87 94 100 100 100 100 100 100
98 97 99 99 100 100 100 99 100 100 100 100 100 100 100 100 100 100 100 100 100 100 100 100 100 100 100 94 86 79 89 86 84 90 92 85 84 94 100 100 100 98 95 100 100 98 100 100 100 100 100 100 100 100
100 100 100 100 100 100 100 100 100 100 100 100 100 100 100 100 100 100 100 100 100 100 100 100 100 98 98 92 94 91 90 93 100 100 100 100 100 100 100 100 100 100 100 100 100 100 100 100 100 100 100 100 100 100
100 100 100 100 100 100 100 100 100 100 100 100 100 100 100 100 100 100 99 98 96 89 85 79 78 75 77 78 95 100 100 100 100 100 100 100 100 100 100 100 100 100 100 100 100 100 100 100 100 100 100 100 100 100
100 100 100 100 100 100 100 100 100 100 100 99 100 100 98 96 96 96 94 91 88 83 79 80 84 84 82 79 79 83 94 100 100 100 100 100 100 100 100 100 100 100 100 100 100 100 100 100 100 100 100 100 100 100
100 100 93 99 100 100 100 100 100 100 100 100 100 100 100 100 100 100 100 100 100 100 100 100 100 100 100 100 100 100 100 100 100 100 100 100 100 100 100 100 100 100 100 100 100 100 100 100 100 100 100 100 100 100
100 100 100 99 100 100 100 100 99 99 94 97 94 89 85 81 79 76 75 72 71 68 66 68 70 71 73 76 80 84 86 91 94 96 98 97 97 98 99 99 100 100 100 100 100 100 100 100 98 98 100 99 98 96
100 98 92 67 28 40 41 43 35 25 19 18 12 9 7 7 7 7 6 6 6 6 6 6 6 6 6 6 7 7 7 7 8 8 8 9 10 11 12 23 43 62 80 86 86 85 76 71 59 45 33 24 19 16
34 16 13 9 8 7 7 7 7 7 8 8 8 8 7 7 7 6 6 7 7 8 8 9 11 12 11 11 11 12 12 12 12 12 12 12 13 13 12 12 13 15 18 20 20 20 19 17 15 14 14 13 13 13
12 12 9 9 8 9 8 10 12 13 14 16 16 16 17 16 16 16 16 16 15 16 15 14 14 14 14 14 13 13 12 12 13 12 12 13 13 13 14 14 15 15 16 15 15 15 15 14 14 14 14 14 14 14
24 18 15 12 12 12 13 15 16 17 17 17 17 18 19 19 18 19 20 19 19 19 18 16 15 14 14 14 13 12 13 13 14 15 16 17 17 17 17 17 17 17 18 18 17 17 17 17 17 16 17 19 21 20
22 19 16 15 15 16 18 19 19 19 18 19 19 19 22 24 25 24 22 20 18 17 15 14 13 13 13 13 14 16 19 20 20 20 20 19 19 19 20 20 19 20 19 19 19 20 23 24 24 20 16 13 13 14
20 19 18 19 20 21 21 21 20 20 20 22 24 28 29 26 22 19 17 15 14 13 13 14 14 14 17 20 22 23 22 23 25 29 31 32 32 32 33 33 33 33 32 29 23 17 15 15 15 16 16 17 18 18
24 24 24 25 24 22 20 20 20 23 29 32 31 27 22 19 17 15 14 13 14 15 14 16 19 22 23 24 27 33 36 36 36 38 39 38 36 29 22 18 15 14 15 16 17 18 19 20 20 20 20 20 21 22
28 27 26 24 23 22 24 28 34 36 34 30 25 21 18 17 14 14 16 16 16 17 20 24 27 31 34 36 37 39 41 39 33 23 18 16 16 16 17 17 18 19 20 20 20 19 19 19 19 20 21 24 27 29
27 27 28 27 30 37 43 42 38 34 29 24 20 18 15 15 16 17 16 17 23 29 33 36 38 39 37 32 25 19 18 17 17 18 18 18 19 20 21 20 20 20 20 21 22 22 22 23 23 23 26 31 36 37
35 37 40 50 54 48 44 40 34 28 24 21 17 14 17 19 16 17 23 28 29 27 23 19 17 16 16 18 19 18 18 18 18 20 21 21 20 20 21 22 23 25 26 28 29 31 31 31 30 30 34 38 46 50
59 60 56 51 52 47 39 33 29 25 19 15 18 20 17 18 23 26 24 19 17 17 18 19 22 21 19 18 18 19 20 20 20 20 20 21 22 24 25 27 29 30 32 33 33 37 39 37 36 41 48 51 58 61

GFSWCAN_500_rhum_054.txt.gz
RH
63 63 57 44 92 64 62 59 63 64 67 75 91 93 76 88 100 96 74 93 95 99 100 98 96 94 96 100 90 89 100 95 79 52 30 32 41 61 87 99 97 100 100 100 99 84 82 94 94 88 67 52 95 66
66 39 70 99 87 60 59 80 81 75 100 91 98 96 84 96 84 100 100 100 100 100 100 87 96 98 100 100 99 100 92 77 39 100 91 56 29 33 33 84 100 100 96 100 100 80 82 95 95 95 96 96 100 81
39 56 79 57 88 89 78 100 97 83 85 93 87 91 100 90 100 89 98 100 100 97 95 89 100 100 100 100 90 93 68 64 37 46 84 87 50 43 46 59 96 98 100 98 100 85 84 83 94 98 98 95 100 100
67 49 98 70 94 97 92 87 100 79 96 94 94 92 98 100 100 100 89 86 93 95 99 100 100 100 100 100 98 75 66 48 95 98 100 95 53 29 32 54 84 96 100 99 99 98 100 91 95 98 99 85 90 99
75 89 64 70 82 84 78 100 100 100 100 100 99 100 100 100 100 100 100 85 82 96 97 100 100 99 99 91 92 74 39 46 58 87 63 38 36 71 58 60 78 87 98 96 93 100 97 95 97 99 96 88 83 92
82 87 85 82 99 100 96 81 92 94 91 95 100 92 96 93 100 98 93 100 100 100 100 94 84 88 94 82 64 40 52 73 54 100 98 66 35 47 66 57 60 80 100 96 84 90 97 97 100 96 96 100 97 78
100 97 100 100 80 87 94 100 77 60 69 66 81 80 86 92 95 89 87 85 98 91 90 95 97 78 50 38 36 31 36 61 47 60 83 69 61 38 50 66 68 81 99 92 85 92 92 100 95 97 96 95 92 100
96 100 100 100 100 99 90 86 87 78 76 73 80 84 95 95 98 98 100 100 100 100 100 76 56 48 30 26 32 55 47 99 96 80 76 66 61 42 49 50 67 86 82 89 82 79 80 91 100 96 94 84 79 84
100 99 100 100 100 100 100 100 100 99 99 99 100 100 100 100 100 100 100 100 97 92 72 64 55 58 40 44 75 91 59 97 100 100 100 89 70 68 55 76 72 60 66 69 91 84 75 76 97 75 67 61 87 71
100 100 99 100 100 100 100 100 100 100 100 100 99 95 89 94 95 98 100 94 87 67 50 40 50 96 98 84 91 77 84 87 100 73 68 81 84 61 60 66 77 92 88 61 74 66 42 50 90 91 87 98 94 95
100 100 99 97 100 100 100 100 100 100 100 97 96 100 100 100 100 93 63 49 35 45 42 50 96 100 91 62 89 78 57 76 74 72 92 88 72 42 38 40 34 29 27 21 19 32 21 25 51 46 22 32 40 42
94 100 100 99 99 98 96 96 97 96 100 100 100 100 90 69 56 46 35 34 37 58 67 98 100 100 100 100 98 98 93 100 94 95 95 100 33 25 28 31 30 24 21 19 18 17 16 18 18 23 18 15 14 17
37 84 100 100 100 100 100 100 95 94 94 77 61 53 44 33 33 35 36 31 33 52 53 90 100 100 100 100 100 85 95 100 100 100 91 37 25 20 22 24 31 31 45 53 36 23 19 17 17 16 14 14 17 23
25 39 72 99 97 98 91 88 84 69 54 39 32 35 35 48 50 60 71 76 84 100 85 99 100 99 100 100 100 100 100 99 98 100 73 62 82 71 64 56 38 34 59 67 71 68 55 41 32 32 48 81 81 97
28 35 53 76 85 78 64 54 46 43 38 36 52 74 72 66 88 96 100 100 100 90 85 97 74 64 93 100 97 85 87 99 100 100 100 100 100 100 100 100 100 99 100 100 100 100 100 100 100 100 98 98 100 100
32 26 47 71 64 52 48 50 44 29 29 43 78 100 100 100 100 100 100 100 100 59 82 84 49 49 85 92 87 92 49 53 99 100 100 100 100 100 99 98 96 99 97 98 97 99 100 100 100 100 100 100 100 100
29 22 23 36 64 46 36 40 30 26 22 42 82 99 100 100 100 100 96 88 90 35 51 56 38 50 61 75 96 100 89 66 76 100 100 100 100 100 100 100 100 100 100 100 100 100 100 100 100 100 100 100 100 100
100 100 100 96 67 39 31 27 24 24 28 62 94 95 98 100 100 100 100 99 82 57 57 52 65 84 83 99 94 100 99 100 100 100 100 100 100 100 100 100 100 100 100 100 100 100 100 100 100 100 100 100 100 100
100 100 100 100 91 83 66 48 52 66 73 68 73 99 100 100 99 94 94 74 91 98 100 100 100 100 100 100 100 100 100 100 100 100 100 100 100 100 100 100 100 100 100 100 100 100 100 100 100 100 100 100 100 100
100 100 100 100 99 98 90 89 98 97 98 99 100 100 100 100 100 100 100 100 100 100 100 100 100 100 100 100 100 100 100 100 100 100 100 100 100 100 100 100 100 100 100 100 100 100 100 100 100 100 100 100 100 100
100 92 88 98 100 100 100 99 98 100 98 100 100 100 100 100 100 100 100 99 98 99 99 99 98 98 98 95 94 92 81 70 60 47 31 21 19 13 20 20 32 38 43 52 58 61 63 62 59 61 58 58 55 50
97 99 82 82 100 100 100 100 100 99 93 82 69 61 61 47 38 24 25 10 11 12 9 6 6 5 6 7 7 7 7 8 8 8 8 8 8 8 8 7 7 7 7 7 8 8 8 8 8 8 8 8 9 9
100 97 82 97 100 95 67 51 23 19 16 16 10 6 6 6 7 7 7 7 7 8 8 10 10 11 10 10 11 12 12 11 11 10 10 9 8 8 8 8 9 9 10 10 10 10 10 11 11 11 12 12 12 12
100 99 75 53 39 41 26 12 8 7 7 7 8 8 9 9 9 10 10 11 12 14 15 17 17 17 16 15 14 12 10 10 9 8 8 8 9 10 10 11 11 11 12 12 12 12 13 13 13 13 14 14 14 15
88 87 69 15 8 8 8 8 9 10 10 10 10 10 10 10 10 10 11 14 17 21 22 21 20 18 16 14 11 9 8 8 8 9 10 11 12 13 13 14 14 15 16 16 16 17 17 17 17 16 16 17 17 18
42 16 10 10 11 11 10 10 10 11 12 12 13 12 12 12 13 17 20 23 24 24 23 20 17 14 12 10 9 8 9 10 12 12 13 14 15 17 18 19 20 20 20 21 21 22 23 24 23 21 19 16 15 15
15 14 14 14 14 13 12 14 14 15 16 16 16 15 15 16 18 22 24 26 25 22 18 14 12 10 9 9 11 12 13 13 14 16 18 19 21 23 26 27 28 28 28 24 20 16 15 15 16 17 18 18 18 19
19 17 16 17 16 16 15 16 18 18 18 18 18 22 24 28 30 29 26 22 18 15 14 11 10 11 12 13 14 16 17 20 24 27 28 29 30 30 27 20 14 14 15 17 18 18 18 20 22 23 23 24 24 25
18 16 17 18 18 19 20 22 22 20 21 26 33 38 36 33 28 23 20 17 15 12 11 12 13 14 16 19 22 25 27 29 30 28 23 17 14 14 15 18 18 18 18 20 22 23 24 26 25 23 22 22 21 22
17 19 21 24 25 25 25 24 23 26 38 45 46 38 32 28 23 20 17 14 12 12 14 15 17 19 21 22 23 22 19 16 15 14 14 16 18 18 18 19 20 22 23 25 27 28 29 30 26 23 23 25 26 29
27 29 28 29 28 27 26 27 38 52 54 48 39 33 30 24 21 18 14 13 14 16 17 18 18 18 18 18 18 17 16 16 17 18 18 18 18 20 21 23 25 28 28 28 29 30 31 31 25 24 24 25 27 29
34 32 32 31 32 34 41 57 63 59 49 42 38 33 27 22 20 14 14 15 16 16 15 16 20 24 26 24 20 17 18 19 18 17 19 20 22 25 28 30 31 32 31 30 30 32 34 31 27 27 29 30 29 29
35 38 42 49 56 68 73 72 63 52 47 44 38 30 26 20 14 15 17 17 13 12 13 16 17 17 17 18 19 19 17 18 20 21 24 27 30 31 33 35 36 37 36 31 29 34 38 33 30 38 39 38 40 40

GFSWCAN_500_rhum_060.txt.gz
RH
23 39 70 100 100 100 100 100 100 100 100 97 79 62 54 56 58 78 86 99 100 100 94 86 71 64 71 72 65 62 80 57 76 58 47 43 39 26 24 33 34 55 24 46 83 100 99 93 95 96 98 100 98 99
40 37 40 54 69 67 64 60 58 52 46 40 41 48 58 69 67 68 61 61 82 100 100 99 94 86 74 61 52 62 68 77 79 79 93 76 59 39 33 42 39 44 50 65 63 96 95 100 100 87 83 89 88 89
91 100 89 61 55 53 51 56 58 58 48 36 34 36 55 88 86 87 73 69 100 86 87 100 100 99 97 85 82 74 68 95 96 77 100 87 72 63 55 40 52 87 83 64 88 98 100 100 97 100 100 100 96 97
100 92 81 73 73 63 58 68 68 76 73 72 71 54 70 72 63 75 91 89 97 100 84 89 100 100 100 98 56 72 91 100 99 100 99 92 72 58 51 52 51 53 68 96 81 100 100 99 91 83 86 91 97 92
100 99 94 82 46 88 96 97 92 100 99 99 99 65 71 78 74 75 99 95 100 100 84 88 100 97 98 88 82 100 100 100 100 100 100 93 46 45 68 100 67 94 64 73 85 100 97 83 66 100 97 90 94 100
100 100 82 46 86 98 72 66 45 82 92 100 100 93 85 94 100 99 89 100 100 100 99 95 100 100 98 97 96 79 61 75 63 94 100 84 71 89 83 83 84 100 90 86 88 94 92 50 40 67 98 99 100 100
100 65 44 85 99 100 96 72 63 70 100 100 88 94 100 97 68 100 87 95 100 98 100 100 100 100 96 99 67 67 67 88 62 73 85 100 73 100 97 100 100 100 98 88 75 60 53 33 38 43 56 86 90 99
100 56 61 74 85 100 100 77 82 92 94 80 90 86 74 92 100 100 100 100 100 92 86 100 94 78 78 91 92 100 100 97 67 76 74 99 100 100 100 89 97 96 91 100 82 42 25 28 38 56 73 82 80 84
100 92 56 64 92 97 100 76 86 98 94 82 62 90 100 100 100 100 100 100 94 89 72 98 100 98 87 81 98 100 99 97 93 94 100 100 100 100 91 88 87 73 82 94 87 70 68 75 90 84 81 82 86 80
98 100 70 75 82 87 90 98 100 89 94 95 98 100 100 100 100 100 100 100 99 78 78 95 99 98 100 100 98 99 99 100 100 100 100 100 99 90 89 84 100 100 99 80 63 64 75 92 89 95 92 85 90 96
98 90 88 85 86 84 90 100 100 99 83 94 89 78 82 96 100 100 99 100 94 80 82 93 96 100 98 100 95 91 99 100 100 100 100 83 59 75 84 88 100 99 95 100 67 44 56 98 98 100 99 100 100 95
100 100 100 100 86 86 86 84 92 98 100 99 96 97 93 88 88 82 82 86 87 93 89 93 96 95 97 100 96 91 80 89 78 86 82 70 47 48 71 87 90 83 100 97 97 90 99 100 100 97 82 97 100 99
97 99 98 91 89 91 95 92 92 91 79 75 77 71 77 73 82 90 85 90 94 97 98 95 82 87 100 100 100 96 83 85 78 61 63 65 94 100 94 87 99 86 96 97 93 98 100 100 87 62 51 38 40 43
100 100 100 100 100 100 100 100 100 100 100 100 100 100 99 94 94 99 100 100 82 81 79 94 100 100 100 100 100 95 78 94 90 82 86 93 84 50 73 91 100 100 98 99 100 93 59 49 100 100 92 76 66 77
100 100 100 100 100 100 100 93 82 72 58 58 50 47 50 52 51 45 42 54 99 99 97 91 98 100 100 100 100 100 98 70 80 99 84 82 66 73 68 69 80 90 81 74 83 100 100 100 99 90 78 73 76 81
100 100 99 89 66 44 37 40 52 60 73 82 88 85 70 71 62 52 38 60 83 74 73 67 74 90 100 100 100 100 62 50 88 92 75 75 65 75 99 72 55 45 59 70 87 100 100 100 100 100 100 100 99 100
90 74 55 46 45 36 53 95 100 100 100 100 100 100 100 97 98 96 63 33 29 32 41 60 71 82 98 100 100 100 100 100 100 100 100 98 90 100 100 100 98 100 98 97 98 100 100 100 100 100 100 100 100 100
63 60 60 52 29 24 51 95 100 100 100 100 100 100 99 100 100 73 34 21 33 55 92 96 78 61 88 100 89 90 93 98 98 100 100 100 100 100 100 100 100 100 100 100 100 100 100 100 100 100 100 100 100 100
46 44 45 39 28 25 71 95 99 100 100 100 100 100 100 100 40 25 24 31 59 74 66 74 62 49 57 63 62 92 93 84 83 81 91 98 98 99 100 100 99 94 90 79 61 46 34 25 24 22 18 19 21 19
19 17 24 23 26 54 79 82 100 100 100 100 100 100 100 90 44 31 40 43 62 63 61 80 88 97 100 100 100 100 100 98 96 91 81 69 59 33 29 24 17 13 12 11 11 11 10 10 10 9 8 8 8 8
51 42 44 56 70 82 100 100 100 100 100 100 100 100 97 94 100 91 67 46 37 84 100 68 73 81 51 24 18 17 16 16 16 16 16 14 14 14 14 13 12 12 12 12 11 11 10 9 9 8 8 8 9 9
100 100 100 97 98 100 100 100 100 93 63 54 52 52 66 92 97 96 76 53 62 70 82 71 59 28 17 18 19 19 19 19 18 17 16 14 13 12 11 11 10 10 9 9 9 8 9 9 9 9 9 9 9 9
100 100 93 93 100 94 69 51 15 10 8 8 8 9 9 9 10 10 10 10 10 11 13 16 19 21 21 21 21 20 19 17 16 14 13 12 12 12 11 11 10 10 9 9 9 9 9 9 9 9 10 11 11 12
100 98 96 98 89 49 18 8 8 8 8 8 9 9 9 10 10 11 12 15 18 19 22 24 25 25 24 23 21 20 18 16 15 15 14 14 13 12 11 10 10 10 10 10 10 11 13 13 14 15 17 18 20 20
97 76 52 23 11 8 8 8 8 9 9 9 9 9 10 10 10 11 12 16 20 24 27 28 28 27 26 23 21 19 18 17 17 16 14 12 11 11 11 12 13 15 18 19 21 22 23 23 21 18 15 15 15 17
52 29 15 12 9 9 9 9 9 10 10 10 10 11 11 12 16 20 24 28 32 34 33 32 29 26 23 22 20 20 19 17 14 12 13 14 17 19 20 21 23 23 23 22 18 15 14 15 17 18 21 23 24 24
58 28 14 11 10 10 10 11 11 12 12 13 14 15 18 22 25 30 34 38 40 39 34 30 27 25 24 23 19 14 13 14 15 16 17 19 22 25 26 23 20 14 13 14 17 18 20 24 26 27 28 28 27 26
27 14 12 12 12 11 12 12 13 15 16 17 17 21 23 25 33 41 46 45 41 36 33 30 28 26 21 14 13 13 13 15 18 20 20 21 20 18 16 14 15 18 18 20 23 27 30 32 33 32 30 29 29 26
24 28 17 16 16 14 14 16 18 18 19 21 23 24 28 34 48 56 52 45 39 36 35 31 26 17 13 12 10 10 14 21 24 22 20 18 16 17 18 19 19 22 25 30 34 36 39 40 41 37 33 31 31 28
44 61 35 22 16 16 19 20 21 22 25 27 29 30 36 56 63 58 50 46 42 37 30 26 16 13 11 10 10 13 17 21 21 19 18 19 19 19 21 24 28 32 35 37 39 41 43 45 46 42 35 33 34 33
57 29 19 19 20 22 24 26 27 29 31 33 35 42 66 73 68 59 52 45 39 31 26 16 15 12 12 14 14 16 17 18 18 18 18 20 22 26 30 31 32 33 34 36 39 43 46 49 50 47 39 34 36 38
25 20 21 26 30 30 31 32 32 35 39 45 55 73 84 78 68 58 51 43 34 27 18 15 15 14 16 17 17 16 16 15 17 20 22 26 29 30 31 32 33 34 34 36 38 42 46 51 53 51 43 37 38 40
35 29 30 31 33 38 40 43 47 49 58 71 86 86 83 73 66 58 48 38 27 20 16 18 14 15 17 17 17 15 15 18 20 23 27 29 29 30 31 31 28 27 32 37 39 42 46 53 56 51 42 41 42 40

GFSWCAN_500_rhum_066.txt.gz
RH
46 40 34 31 29 25 17 25 85 97 100 100 100 100 100 100 100 87 46 47 82 98 100 100 100 100 100 100 100 100 100 95 80 71 62 57 46 54 48 44 40 39 44 39 38 32 14 16 20 30 33 58 77 88
73 53 50 46 38 46 45 43 25 66 100 100 100 100 100 100 100 100 91 92 100 100 100 100 100 100 100 100 100 99 100 100 79 72 62 76 67 61 65 57 61 43 39 38 29 21 20 21 22 35 25 35 55 82
66 64 83 83 82 78 71 61 64 84 97 100 100 100 100 100 100 100 100 98 100 100 100 100 94 100 100 100 100 98 100 100 82 80 78 72 62 61 56 52 47 44 44 36 35 24 26 26 29 29 31 26 52 78
86 98 91 86 88 79 75 76 70 71 85 91 100 100 100 100 100 100 100 99 100 100 100 99 99 100 100 100 97 98 100 99 100 100 88 67 61 60 61 62 56 57 53 47 38 31 34 29 40 32 43 48 51 55
93 48 53 71 81 94 99 99 95 86 62 72 98 100 100 100 100 100 100 100 100 100 100 100 100 100 100 100 100 100 100 100 100 100 79 70 72 77 75 66 55 48 41 38 32 32 34 30 39 35 47 68 95 83
80 53 61 72 100 100 100 87 76 87 97 94 69 91 100 100 100 100 100 100 100 99 94 98 100 100 100 100 100 94 100 100 99 96 98 96 82 73 56 45 40 39 68 61 68 71 77 73 62 46 54 69 98 98
55 73 99 95 60 51 89 82 74 78 96 100 100 94 91 93 100 100 89 96 100 99 95 93 90 79 69 78 96 96 98 100 100 100 92 100 82 80 71 59 50 44 63 81 100 100 92 83 67 52 53 72 100 100
91 93 48 92 92 86 91 100 100 98 78 74 100 100 100 92 89 84 55 85 100 78 68 62 50 44 40 40 56 90 100 100 100 100 100 99 95 86 62 50 46 72 100 93 91 68 82 100 79 49 58 67 100 100
98 46 54 68 98 99 72 100 98 99 97 100 100 100 100 100 78 92 100 86 86 97 83 53 50 61 87 82 100 100 100 100 100 99 100 85 77 65 46 43 64 62 99 99 87 93 95 100 100 100 100 100 100 100
92 59 67 85 74 80 95 100 99 88 94 97 95 99 100 100 98 87 95 94 100 100 100 98 100 99 86 97 98 95 87 66 62 80 87 100 66 65 70 80 67 98 100 100 97 94 100 100 100 100 100 100 100 99
99 92 76 71 100 98 100 100 98 92 85 82 82 92 100 100 96 100 100 100 100 95 100 100 100 99 97 99 84 69 80 81 83 93 100 86 72 53 42 59 88 99 94 100 100 96 94 97 97 100 97 93 92 96
97 93 94 91 73 100 88 97 92 99 100 100 100 100 99 98 100 100 98 100 92 78 87 86 96 92 79 78 75 91 99 99 91 76 76 38 31 41 28 24 66 71 87 99 94 93 100 93 88 92 92 91 93 86
100 100 97 91 94 98 100 85 86 100 100 96 100 99 98 69 82 67 62 70 74 86 87 83 95 90 76 94 100 100 98 100 98 100 98 77 85 90 64 50 50 51 91 100 98 100 100 100 100 98 89 83 77 79
100 100 100 100 94 93 90 80 81 95 93 100 94 84 83 98 92 88 86 83 76 76 73 80 81 95 100 99 100 100 99 100 100 99 97 100 98 80 70 68 89 100 100 91 72 74 100 98 87 92 92 92 97 92
100 100 100 100 100 100 100 95 94 96 99 96 85 72 70 77 89 96 88 65 63 70 77 89 98 100 100 99 98 93 100 99 100 98 100 99 84 80 82 81 85 96 85 81 100 100 95 94 94 95 98 100 100 100
100 100 100 100 100 100 100 100 100 100 100 100 100 100 100 100 100 100 98 97 93 94 96 99 100 100 100 100 100 100 100 100 100 100 100 94 89 96 93 78 63 84 97 100 100 100 100 100 100 100 98 100 100 100
69 58 54 61 68 83 98 100 100 100 100 98 92 79 84 96 100 100 100 78 73 89 100 98 98 100 100 100 100 100 100 100 100 100 100 100 92 97 100 97 100 100 100 100 100 97 94 100 100 100 100 100 100 100
46 46 62 100 100 100 100 100 100 100 100 96 95 87 53 56 78 86 81 90 97 99 100 100 100 100 100 100 100 100 100 96 98 96 100 100 100 100 100 100 100 100 100 100 100 100 100 100 100 100 100 100 100 100
64 100 100 100 100 100 100 100 100 100 92 88 62 45 47 49 71 97 100 100 98 100 97 98 100 100 100 100 99 90 84 98 100 100 100 100 100 100 100 100 100 100 100 100 100 100 100 100 100 95 77 56 39 27
33 70 100 100 100 100 100 99 86 71 65 53 51 66 66 78 94 97 74 98 100 99 100 99 96 91 69 57 39 24 21 36 57 87 100 100 100 100 100 100 100 100 96 88 88 78 55 34 20 15 12 12 11 11
30 86 100 100 100 100 99 46 35 35 32 44 48 50 52 51 80 99 100 100 91 85 72 38 20 17 17 19 19 19 19 18 18 17 16 16 16 15 15 15 15 15 14 13 13 14 14 15 15 14 14 14 14 13
48 100 99 98 99 100 99 75 37 28 31 30 35 46 70 94 92 68 39 25 20 21 21 22 23 23 24 25 26 26 25 24 24 24 24 23 22 22 21 20 20 19 19 18 18 17 16 15 14 13 13 12 11 11
100 97 84 79 74 75 79 95 93 76 67 64 62 56 49 41 32 30 23 23 24 26 25 24 24 26 28 31 31 30 29 27 26 24 22 20 18 17 16 15 14 14 13 14 14 14 14 14 14 13 13 13 14 16
100 75 38 21 15 12 12 12 16 22 23 19 15 13 12 13 14 15 16 16 17 19 22 26 29 30 29 30 28 28 26 24 20 18 15 12 11 11 13 14 15 16 16 17 17 17 17 18 19 22 22 21 18 15
62 40 23 14 10 10 9 9 9 9 8 9 9 10 11 13 17 21 25 26 27 28 29 31 34 34 33 31 28 26 22 20 16 11 8 9 10 11 11 13 16 19 21 22 22 24 26 26 22 15 15 17 22 28
62 41 15 9 8 8 8 8 9 9 10 11 13 14 15 18 27 34 35 35 36 39 41 41 39 37 33 30 27 23 20 14 8 9 9 9 9 10 13 17 22 24 26 28 28 25 18 15 17 21 27 33 37 37
25 18 11 10 9 9 9 10 10 11 12 15 16 17 22 31 41 43 43 41 42 44 44 41 39 36 33 30 26 23 17 10 11 11 10 9 10 15 19 21 22 22 22 20 16 18 20 24 31 36 38 40 40 40
23 20 15 12 9 10 11 13 15 17 20 20 21 22 31 44 49 51 48 45 48 49 47 44 42 38 35 30 26 20 12 13 14 14 11 11 13 14 16 16 16 18 19 20 23 30 35 37 37 37 35 32 30 29
33 21 12 12 13 18 21 24 27 30 27 26 25 28 42 55 59 55 48 52 55 53 49 48 45 42 34 30 24 14 14 15 16 16 16 15 15 16 17 19 22 26 30 33 34 34 34 34 34 33 34 35 36 35
34 16 14 17 26 38 33 28 43 44 34 30 30 34 52 65 62 55 59 62 58 52 48 48 46 38 33 26 18 17 16 16 17 16 16 16 18 21 25 30 31 32 33 34 34 34 32 30 30 32 35 38 39 39
25 18 21 33 47 42 29 34 57 47 38 35 36 47 68 69 63 68 70 65 56 49 49 47 39 35 27 18 17 21 19 17 18 17 16 17 20 24 30 30 30 32 33 32 30 24 21 20 21 21 24 34 42 45
24 18 20 37 56 50 50 55 55 52 45 41 50 71 78 72 74 77 68 58 51 51 49 41 38 25 17 18 24 26 20 19 20 19 18 18 20 22 26 29 30 30 29 26 22 20 21 21 22 22 28 40 47 53
30 25 37 69 79 72 67 67 57 49 53 68 86 85 78 80 79 69 60 54 54 50 43 36 22 17 22 29 32 28 22 21 21 21 20 19 20 21 22 23 25 24 24 22 21 21 21 22 23 29 42 50 56 52

GFSWCAN_500_rhum_072.txt.gz
RH
96 96 97 93 82 59 53 46 40 36 34 49 98 100 100 100 100 100 90 44 12 10 15 20 18 22 73 90 100 100 100 100 100 85 77 73 71 77 88 90 82 69 59 46 47 33 24 31 26 27 29 29 22 17
96 97 96 98 87 61 49 48 47 37 33 33 27 74 100 100 100 100 99 66 47 14 12 15 16 27 86 100 100 100 100 100 100 83 70 74 76 90 100 100 94 86 55 51 41 37 37 34 38 41 28 22 20 17
98 90 88 84 80 72 67 65 59 59 58 47 33 25 95 100 100 100 98 100 61 29 16 12 17 62 100 100 100 100 100 100 93 91 89 84 75 92 96 91 83 67 60 44 44 44 54 43 32 28 31 26 24 22
92 85 84 82 83 85 77 45 53 49 43 73 50 32 39 100 100 100 85 100 94 45 24 51 88 93 100 100 100 100 100 100 100 100 87 75 82 89 91 90 86 78 62 61 50 50 57 66 46 41 34 26 29 34
81 78 88 93 82 76 68 53 54 65 54 63 76 50 35 100 100 100 98 80 83 72 60 94 100 98 98 100 100 100 100 100 100 100 84 82 86 88 89 84 75 79 77 68 65 54 59 63 51 38 40 45 45 43
95 68 40 57 70 50 45 56 87 83 74 48 63 71 99 100 100 100 98 96 100 85 90 77 75 86 100 97 97 100 100 99 99 98 97 100 100 100 83 70 75 80 78 74 66 64 60 54 55 51 47 45 40 36
73 60 48 79 91 71 59 73 79 91 100 78 74 100 100 100 100 100 85 87 92 94 96 94 98 94 96 98 98 100 97 95 87 84 80 84 97 86 74 73 68 72 73 71 60 64 54 43 44 48 44 38 30 24
100 95 89 79 76 81 95 68 87 53 100 96 96 100 100 100 100 100 100 100 100 100 100 100 86 89 94 100 94 98 96 97 90 98 89 89 98 84 52 56 65 73 75 71 76 63 60 60 52 44 36 31 26 32
97 97 68 99 86 100 100 99 82 98 100 100 97 100 100 100 100 100 100 100 100 100 100 100 100 99 93 88 93 100 98 95 91 81 74 82 79 60 50 63 66 72 70 73 75 68 61 56 47 36 44 54 41 50
90 63 76 100 98 100 100 100 100 100 94 100 99 100 100 100 100 100 100 100 100 100 100 98 93 86 81 79 82 88 91 87 82 92 90 94 68 68 73 81 92 89 84 79 77 66 57 50 44 39 46 58 58 65
97 69 69 81 96 100 100 100 92 80 81 100 100 96 100 100 100 100 100 99 100 100 97 96 93 88 71 50 44 43 47 46 52 52 70 58 55 50 53 56 66 78 79 86 79 60 54 60 72 94 74 90 87 95
100 94 99 70 77 92 100 100 93 90 93 100 100 100 100 100 100 97 88 96 95 96 89 77 67 70 63 72 54 60 79 100 95 100 100 67 52 73 74 68 71 78 70 59 75 70 74 88 97 81 63 82 95 84
100 100 100 73 81 72 89 100 82 93 89 96 98 87 75 65 63 62 62 65 67 57 42 46 45 65 100 100 89 89 77 100 90 72 64 66 71 80 91 97 89 96 85 76 73 62 76 57 48 51 40 73 90 100
100 100 100 100 99 90 76 82 66 78 88 90 96 100 100 100 86 62 54 85 100 66 92 91 84 97 100 100 89 65 62 71 62 51 54 75 82 92 100 100 100 100 99 93 87 54 42 39 32 38 35 80 95 91
100 100 100 100 100 87 82 80 74 94 100 100 100 98 78 84 96 100 100 93 94 100 95 85 81 91 85 78 66 55 59 61 65 83 100 96 96 100 100 100 96 100 100 100 100 98 81 79 80 95 100 100 100 100
100 100 95 100 100 94 70 74 89 98 100 98 99 100 99 100 100 92 84 82 86 84 86 81 72 60 61 55 69 80 91 98 99 98 99 100 100 100 100 100 98 99 100 100 100 100 100 100 100 100 100 100 98 96
100 100 100 88 89 100 100 98 89 91 100 100 99 100 99 90 84 76 66 53 51 62 70 77 84 94 95 98 100 100 100 100 100 100 100 100 100 100 100 100 100 100 100 100 100 100 100 100 100 100 100 100 100 100
100 100 100 100 98 91 96 100 100 100 94 77 78 81 84 80 75 71 67 72 82 90 97 100 100 100 100 100 100 100 100 100 100 100 100 100 100 100 100 100 100 100 100 100 100 100 100 100 100 100 100 100 100 100
100 100 100 100 100 98 92 93 95 96 93 86 76 77 79 84 87 90 90 97 100 100 100 100 100 100 100 100 100 100 94 64 48 68 88 97 100 100 100 100 100 100 100 100 100 100 100 100 100 100 100 100 100 100
100 100 100 93 83 78 72 71 68 74 78 75 64 72 78 81 83 92 98 100 100 100 100 100 100 100 100 97 78 44 21 20 21 21 21 21 21 24 28 32 34 35 36 35 37 40 41 43 49 52 56 57 54 51
100 100 83 64 60 62 58 62 67 55 46 43 50 64 80 92 100 100 100 98 97 100 99 93 58 29 20 21 22 23 24 26 29 30 30 30 28 27 25 23 22 22 21 21 20 19 19 20 27 30 31 30 28 25
72 80 75 62 57 48 46 42 35 37 46 61 73 84 89 82 89 97 96 92 66 28 22 21 20 21 25 29 32 34 34 33 32 31 30 29 27 26 24 20 17 14 12 13 14 15 16 17 18 18 19 19 18 17
48 46 44 38 38 36 37 36 48 56 60 67 71 78 82 89 97 95 56 21 20 26 31 34 35 36 37 37 37 37 37 37 35 32 29 28 27 24 20 15 12 11 11 11 11 11 12 12 14 15 17 18 19 20
40 50 50 50 52 50 52 56 60 64 63 86 99 99 70 31 22 22 32 39 42 42 41 40 40 41 42 43 42 40 37 34 32 30 32 32 28 20 15 13 13 13 12 11 10 11 14 17 20 23 26 28 30 30
58 60 56 52 48 52 61 70 72 52 31 18 16 16 20 34 43 44 45 44 44 45 45 45 46 47 47 45 41 38 36 35 35 37 37 28 19 16 15 15 14 12 12 14 17 20 23 27 32 35 36 32 23 19
30 21 19 16 12 11 10 10 11 12 14 17 22 29 38 44 47 48 50 52 53 52 52 52 53 52 49 45 42 40 39 39 38 30 20 17 17 18 17 16 14 14 15 18 21 24 27 30 28 22 21 24 28 32
9 9 9 9 10 10 10 11 15 28 36 39 43 47 50 48 47 49 54 58 57 59 57 58 57 54 51 47 44 42 36 28 20 15 15 18 21 18 18 18 16 15 16 17 18 19 20 22 25 29 33 37 39 39
9 9 9 10 10 10 12 22 40 52 56 60 55 56 58 56 52 56 62 65 65 66 64 62 60 58 53 48 44 32 21 15 14 18 22 25 22 19 20 20 19 19 20 22 25 28 31 35 36 37 36 36 35 30
10 12 10 10 11 13 26 43 51 47 48 54 62 65 64 62 61 64 72 74 75 72 68 65 62 59 52 46 31 18 13 15 24 28 29 27 23 20 20 20 20 21 24 29 32 33 34 34 34 34 32 30 26 23
16 14 11 11 14 20 31 49 52 48 52 56 62 70 72 69 65 70 80 82 78 74 70 67 64 57 49 30 17 13 16 27 32 30 30 26 23 22 21 21 20 20 23 26 29 31 31 31 30 30 28 27 25 24
16 17 14 13 14 18 22 31 41 44 47 58 73 81 80 72 71 83 86 84 78 74 72 71 63 52 30 17 13 17 24 30 31 29 26 25 23 22 23 23 23 22 23 25 25 26 27 27 27 27 26 26 26 25
26 18 18 16 18 18 19 20 22 28 44 65 80 87 81 77 84 91 88 83 77 78 74 68 55 31 18 13 17 20 21 21 22 23 23 24 25 26 25 25 26 25 25 24 25 25 26 27 27 27 27 27 28 29
31 28 29 28 29 22 22 24 27 36 57 80 92 89 87 90 94 91 87 82 81 79 72 59 33 20 14 17 20 22 26 29 32 33 36 38 40 38 36 34 34 35 34 32 30 29 29 28 29 30 31 32 32 33

GFSWCAN_500_rhum_075.txt.gz
RH
84 91 93 96 100 99 89 66 68 75 77 90 100 100 100 100 100 91 100 100 92 56 65 15 27 42 41 47 99 92 84 99 100 100 95 90 86 97 79 82 87 80 52 27 23 18 13 31 33 48 52 39 34 30
91 88 92 94 96 97 95 65 55 53 46 45 42 56 100 100 100 96 94 100 96 40 52 13 18 37 70 93 99 100 97 100 100 98 87 94 87 85 87 84 86 92 67 68 55 35 43 46 47 56 40 36 33 29
88 87 93 94 87 80 73 64 53 50 52 41 35 37 32 72 100 100 92 100 97 54 39 13 16 25 64 90 93 99 100 100 100 100 100 100 97 100 100 97 100 100 100 85 99 59 76 65 39 33 41 44 38 24
93 95 91 85 81 78 77 78 79 72 67 61 55 46 39 27 90 100 94 100 100 94 43 15 15 14 38 80 97 100 100 100 100 100 100 100 100 100 100 100 99 100 100 98 91 99 91 85 35 28 45 29 26 32
95 93 87 59 42 36 47 67 64 64 51 46 38 36 49 34 45 100 100 100 100 100 67 19 14 17 50 86 97 100 100 100 100 100 89 100 100 100 100 98 100 100 100 92 85 73 77 90 56 41 56 45 36 38
92 81 72 60 43 35 37 44 41 66 58 60 54 44 79 49 32 100 96 99 100 94 88 44 22 16 79 100 100 100 100 100 98 100 99 100 100 100 100 100 100 99 83 100 94 100 98 74 47 63 63 57 51 47
88 89 82 65 62 59 58 52 62 49 71 74 58 60 83 51 39 98 72 100 100 89 99 96 98 98 100 100 100 99 100 98 98 96 93 100 100 100 92 100 99 100 98 82 75 82 72 76 67 74 70 60 48 40
100 82 64 85 72 76 75 51 54 63 96 97 65 85 87 84 100 100 100 100 100 100 98 94 88 96 100 100 100 95 82 84 83 87 83 91 100 97 76 72 87 96 93 78 80 74 68 67 63 63 61 55 48 42
56 56 85 100 96 93 100 85 89 98 100 100 96 100 100 100 100 100 100 100 100 100 96 100 100 100 100 95 93 89 88 80 77 70 77 92 98 68 54 83 97 94 88 81 81 71 73 71 67 69 62 56 51 48
63 58 96 91 80 93 96 94 79 100 100 100 100 100 100 100 100 100 100 100 100 100 100 100 100 100 99 94 90 86 81 90 84 81 91 83 70 68 65 70 79 92 84 83 79 64 73 65 62 66 64 60 54 48
90 73 99 71 86 96 100 100 100 100 100 100 100 100 100 100 100 100 100 100 97 90 91 100 92 95 92 94 93 90 97 94 87 84 87 71 53 58 68 83 92 93 96 96 89 84 77 77 78 79 77 58 52 69
100 80 96 99 97 95 96 100 100 100 98 100 100 100 100 100 100 100 99 91 89 86 80 80 82 81 76 67 66 70 66 71 67 66 72 40 52 97 80 67 67 68 69 65 60 61 60 58 63 89 67 50 57 92
98 74 78 91 83 63 69 81 100 100 100 100 100 100 88 90 97 96 94 86 73 69 65 64 68 70 70 56 51 51 50 45 52 70 67 61 67 75 66 60 69 74 73 64 59 58 56 55 54 60 56 63 100 91
100 100 95 91 88 92 93 72 98 100 100 100 100 94 83 72 60 71 82 87 90 90 81 75 85 73 78 92 87 78 65 68 66 49 37 56 71 76 83 84 94 98 88 75 81 75 68 68 67 60 56 66 51 38
100 100 88 70 48 57 82 74 70 73 87 96 100 74 54 50 53 57 65 73 77 82 80 77 73 85 100 99 86 84 74 51 51 60 84 93 98 100 100 100 99 99 100 100 92 80 91 99 100 98 72 68 63 69
83 100 89 91 75 74 91 95 95 95 97 100 98 98 98 83 57 52 57 68 52 74 84 82 84 93 93 83 76 60 55 62 84 98 100 100 100 100 100 100 100 100 100 100 100 100 99 98 96 97 98 96 98 100
98 99 96 97 100 99 96 98 100 100 100 100 100 100 100 100 100 90 82 88 85 74 78 70 65 66 57 59 72 86 93 95 92 93 95 97 98 100 100 100 100 100 100 100 100 100 100 100 100 100 100 100 100 100
100 99 100 100 100 100 100 100 100 100 96 92 99 97 91 85 78 75 71 67 72 73 76 78 69 80 92 98 98 97 100 100 68 34 46 70 90 99 100 100 100 100 100 100 100 100 100 100 100 100 100 100 100 100
100 100 100 97 93 94 92 91 93 84 81 90 93 96 92 84 70 64 64 70 79 90 99 99 99 100 98 100 100 93 55 23 20 22 23 22 22 25 33 54 66 70 74 73 77 77 80 91 97 100 100 100 100 100
96 92 91 89 88 86 86 88 94 90 86 82 83 85 87 91 96 96 100 100 100 98 98 99 99 98 61 26 21 22 24 23 22 22 24 26 27 27 27 27 27 27 26 23 21 21 25 36 54 67 79 88 98 98
90 79 74 68 64 71 77 84 91 88 77 79 83 90 97 100 100 98 95 96 97 98 77 33 25 23 22 21 22 25 30 33 34 35 35 35 34 32 30 28 27 27 26 24 22 20 18 16 17 20 27 36 42 40
81 70 66 60 55 58 61 71 70 61 57 70 79 94 96 92 98 98 96 70 32 22 20 20 24 30 34 35 36 38 39 39 38 37 34 32 31 30 30 32 33 31 26 21 18 15 14 12 12 12 12 12 13 13
65 54 48 42 40 42 46 44 45 54 65 79 84 82 86 95 86 74 30 18 28 36 38 38 38 38 38 39 40 40 40 39 36 34 35 34 34 35 36 34 28 22 17 16 14 14 14 13 13 12 12 13 14 16
50 44 35 28 28 32 37 50 62 72 80 82 87 87 81 61 28 23 36 40 40 40 41 42 42 43 43 44 45 45 43 40 40 41 38 34 29 24 20 17 15 16 17 16 15 14 13 13 15 17 20 23 28 31
38 34 32 32 37 51 57 60 60 76 88 90 65 27 19 38 63 44 45 45 47 48 49 50 51 51 51 52 51 49 45 46 46 36 24 14 12 12 14 16 19 19 18 16 14 14 16 19 23 26 32 38 40 35
52 51 52 52 55 54 60 59 34 15 12 16 24 36 58 51 46 47 51 54 56 56 58 59 59 59 59 57 54 52 53 48 27 15 10 10 13 18 20 22 20 19 18 16 15 16 18 20 23 24 23 21 22 27
42 36 30 22 14 10 10 11 14 23 38 46 54 56 55 55 55 58 60 63 64 66 67 65 64 64 61 59 58 58 46 22 12 9 11 17 23 25 25 22 20 20 20 20 19 19 20 21 22 25 29 33 36 38
10 9 9 9 10 11 17 30 52 57 56 57 57 60 62 66 66 67 66 68 71 71 69 68 67 64 62 62 62 47 20 12 9 12 19 26 27 26 24 22 21 20 21 21 21 24 27 31 33 35 36 36 36 35
9 9 11 11 11 14 34 52 56 55 58 57 60 64 70 74 74 72 72 75 79 73 71 72 69 68 65 65 49 21 13 10 13 18 22 27 28 26 24 22 21 21 21 22 23 25 28 31 32 33 33 33 31 31
10 10 10 10 13 21 33 44 53 51 53 49 45 51 63 71 76 78 81 85 83 78 77 76 73 68 67 50 24 14 10 13 17 19 21 22 22 24 25 25 23 23 23 23 23 23 25 27 28 28 29 29 29 28
14 13 12 12 14 17 20 22 25 27 27 28 30 40 55 73 78 85 93 94 87 81 82 80 72 67 55 30 16 11 14 18 21 24 28 31 32 32 33 35 33 30 29 28 27 26 26 26 27 28 29 29 30 30
19 15 15 14 15 16 19 19 19 21 22 24 31 48 69 80 91 99 99 95 85 88 86 78 70 60 36 19 12 15 18 22 28 31 33 37 42 46 48 48 47 44 41 41 40 38 36 34 33 33 33 33 33 33
28 26 27 26 28 26 25 25 23 24 26 29 40 56 78 91 100 100 97 90 92 90 83 72 64 39 22 13 15 19 24 31 34 32 33 36 36 36 38 41 45 47 48 47 46 42 40 38 38 38 40 44 52 61

GFSWCAN_500_rhum_078.txt.gz
RH
28 13 10 71 89 93 97 100 90 87 100 100 100 100 100 100 100 99 100 100 100 100 96 17 7 14 21 48 74 94 77 99 88 89 71 57 89 99 100 100 100 100 97 74 54 41 15 16 52 100 80 49 40 38
16 10 24 88 91 94 93 100 95 64 72 78 88 100 100 100 100 100 100 100 100 100 85 16 11 21 14 41 58 100 90 82 59 76 96 79 96 100 93 99 100 100 100 100 82 50 58 62 41 100 77 91 72 51
10 10 83 97 100 100 100 99 94 86 62 56 52 52 50 79 100 100 100 100 100 99 51 14 13 23 27 23 47 76 94 99 53 95 100 94 100 100 100 100 100 100 100 87 82 61 57 81 72 36 86 69 65 49
10 74 100 100 100 97 90 86 84 79 67 55 54 48 45 43 46 97 100 100 100 100 62 41 16 17 40 31 37 100 100 99 92 100 100 100 94 100 100 100 91 100 99 100 95 100 100 77 83 70 46 57 57 51
78 100 100 100 99 85 64 54 49 53 62 72 64 59 57 53 42 38 100 100 100 100 90 51 14 18 28 37 67 94 82 97 100 97 81 100 98 99 100 100 100 100 95 100 94 100 100 90 100 100 96 53 47 42
100 100 100 94 79 66 42 33 37 30 28 50 64 61 41 39 49 37 82 100 100 100 75 74 42 14 20 42 54 73 100 100 100 89 84 96 99 96 97 100 100 95 80 83 89 100 100 91 91 100 84 61 49 44
100 99 76 37 40 50 59 55 50 45 29 55 62 52 44 40 43 41 64 100 100 100 97 71 64 28 15 30 52 99 100 100 95 98 94 97 100 100 100 100 100 100 100 100 100 100 94 100 89 87 77 69 58 50
98 57 40 61 87 100 97 51 45 66 75 70 68 66 65 88 89 50 93 100 100 100 97 58 80 47 17 31 91 100 100 100 96 98 99 100 99 96 83 83 99 100 100 100 100 95 94 94 85 88 86 79 68 66
66 45 38 71 69 84 76 79 98 62 59 83 96 82 79 100 88 63 100 100 100 100 85 75 100 87 35 98 100 100 100 100 99 87 100 100 100 97 89 99 100 100 100 100 100 93 100 100 88 88 83 79 70 65
66 34 42 61 74 88 99 98 71 70 60 100 97 91 100 100 100 100 100 100 100 100 100 100 100 100 99 100 100 100 99 88 72 76 92 85 77 87 97 100 100 100 100 100 97 90 92 89 89 91 84 78 74 68
58 75 64 78 94 82 98 89 94 100 100 100 84 100 100 100 100 100 100 100 99 100 100 100 100 100 100 100 100 93 93 89 88 97 99 82 74 88 94 100 100 100 100 100 91 83 75 68 62 72 79 75 78 76
55 99 89 94 75 97 100 100 100 100 100 100 100 100 100 100 100 100 99 100 98 100 100 98 97 96 100 99 99 99 98 99 98 94 89 69 66 92 100 100 96 95 96 86 73 61 59 55 52 46 39 38 36 32
93 65 79 61 69 90 100 100 100 100 100 100 100 99 100 98 97 100 96 98 82 86 93 92 98 96 97 87 82 87 83 72 66 69 60 62 97 86 80 76 65 71 67 55 53 60 64 62 55 55 54 51 58 58
100 81 88 50 58 86 100 100 100 100 100 100 91 81 86 88 97 99 96 98 91 90 82 77 82 79 75 69 63 57 57 57 53 38 28 47 71 66 61 67 60 59 66 61 60 72 69 63 68 64 57 48 56 66
100 86 76 77 80 97 100 98 100 99 99 96 86 89 95 100 100 100 100 100 95 84 75 73 77 84 73 82 72 62 64 54 38 51 63 64 67 72 78 83 86 92 97 99 100 100 91 92 94 96 92 86 88 91
100 84 80 93 66 74 100 94 85 81 98 91 63 62 60 59 64 75 84 85 78 76 73 74 89 93 86 65 78 80 69 56 68 72 85 88 91 93 94 98 100 99 97 95 99 99 100 100 100 100 100 100 100 100
92 95 95 96 76 64 80 90 98 100 100 92 73 48 48 36 47 57 66 73 74 71 61 55 53 63 66 84 86 73 71 91 92 98 100 92 76 90 93 100 100 100 100 100 100 100 100 100 100 100 100 100 100 100
99 83 98 99 100 92 98 100 100 100 100 100 100 85 82 48 38 46 50 43 65 85 82 81 74 63 58 61 78 95 100 100 100 67 21 24 25 26 26 25 28 39 66 85 93 93 96 97 98 99 100 100 100 100
100 98 99 100 100 100 100 98 89 86 91 99 98 100 100 98 88 81 80 71 72 71 69 62 69 82 93 99 100 99 82 36 25 29 28 27 27 28 29 29 29 29 29 28 28 28 27 25 24 24 31 53 77 92
100 100 92 89 98 100 100 100 100 94 95 100 100 94 78 67 62 60 65 76 88 92 95 99 100 100 99 61 26 25 26 26 28 31 33 34 36 36 36 34 32 31 30 29 29 29 29 28 28 26 25 22 21 31
88 91 91 87 80 89 94 92 86 82 79 86 91 93 94 96 99 100 100 100 100 100 100 68 30 24 23 23 24 30 34 36 38 39 38 37 35 34 35 36 34 33 33 34 36 39 37 32 25 22 20 19 18 16
83 79 76 73 74 82 93 98 96 87 86 85 95 100 100 100 100 100 94 58 30 23 21 21 26 33 35 36 37 38 40 40 40 40 39 37 38 38 32 25 21 18 16 17 19 21 20 18 17 16 15 15 14 14
70 60 56 58 65 75 79 73 67 73 82 95 98 100 100 100 74 37 22 20 30 36 37 38 38 39 40 41 42 44 44 43 42 42 43 42 33 21 14 10 10 9 10 11 13 16 18 18 17 16 15 14 14 14
51 48 48 52 56 57 56 54 68 86 90 88 99 97 74 46 25 28 38 41 42 43 43 44 46 47 47 48 50 49 47 48 50 49 42 27 15 10 9 8 9 11 15 17 19 19 18 17 15 15 16 19 21 24
45 40 43 44 44 46 58 73 83 80 88 99 83 52 25 38 61 45 46 49 50 50 52 52 52 53 55 54 53 52 52 52 49 37 20 11 9 8 9 13 18 19 21 21 20 19 17 16 16 18 22 27 31 36
36 31 33 36 47 60 63 57 75 90 82 56 25 36 60 53 48 52 55 56 58 60 60 58 59 59 57 58 57 55 53 50 32 15 10 9 9 12 18 23 23 23 22 20 20 20 20 18 18 19 19 20 21 23
33 35 45 57 57 60 65 38 19 16 20 35 53 54 56 58 61 62 62 66 68 68 67 64 63 61 63 64 62 57 52 30 14 10 9 10 14 17 21 25 26 24 22 21 21 21 21 21 23 25 27 30 33 36
54 52 53 48 20 11 14 27 44 48 56 58 59 60 62 64 63 61 64 71 77 78 75 74 69 68 70 70 60 54 32 14 11 9 11 14 16 19 20 21 24 25 24 22 22 22 22 23 25 28 32 34 35 36
28 16 9 10 13 23 46 54 52 53 60 61 57 48 45 43 46 55 65 76 86 86 82 77 75 76 75 63 56 33 15 12 9 12 14 17 19 21 25 27 26 27 28 26 25 24 24 24 25 27 28 30 31 31
9 10 11 12 17 35 46 52 54 52 48 38 30 29 30 33 40 51 70 82 92 91 84 79 79 77 67 60 37 17 13 10 12 15 19 22 21 22 27 32 38 40 40 36 32 31 30 29 28 27 28 28 29 30
10 11 12 12 14 21 24 26 25 24 24 23 24 26 27 32 39 55 72 88 96 93 85 82 80 72 64 42 20 14 12 12 15 19 24 26 24 25 28 30 32 36 40 42 41 40 40 40 38 37 36 34 34 34
13 11 12 12 13 15 17 18 19 22 22 24 25 25 26 31 40 54 75 98 98 93 86 83 76 67 48 22 16 12 13 15 19 25 30 37 39 40 38 38 36 35 37 38 41 42 42 42 41 41 41 44 49 55
17 19 20 19 20 22 22 23 23 23 25 24 25 26 29 34 43 72 98 100 97 92 86 81 72 56 27 18 14 13 16 19 26 32 39 46 52 57 61 63 64 65 66 66 66 66 66 65 62 59 56 49 44 41

GFSWCAN_500_rhum_084.txt.gz
RH
10 11 15 25 27 26 32 38 16 10 72 92 94 94 95 98 54 23 32 19 19 14 16 22 28 31 23 16 13 13 16 14 54 41 21 91 84 64 47 37 67 88 100 79 39 14 9 11 17 53 87 100 100 88
12 15 26 29 31 29 41 23 13 33 80 92 94 95 94 95 92 53 24 15 44 95 77 89 86 74 38 20 28 17 32 51 67 84 44 88 61 40 55 65 95 92 97 100 100 81 40 28 27 13 63 49 65 71
22 28 30 35 31 42 36 16 26 81 82 92 90 98 97 99 100 98 96 91 89 100 100 91 100 68 10 18 29 30 98 100 96 100 78 65 66 34 62 89 97 100 100 100 91 81 75 96 80 50 66 74 74 100
31 34 39 36 42 44 20 29 85 88 85 94 91 90 100 100 100 95 100 99 83 99 100 95 67 49 8 8 23 74 100 100 100 97 84 75 53 47 70 92 95 100 99 100 100 94 94 96 95 100 100 100 58 94
41 44 41 46 47 21 33 82 93 93 90 93 97 80 82 94 91 91 100 100 96 100 98 81 66 35 12 9 18 83 100 96 97 73 67 82 55 64 84 98 97 100 100 100 100 100 90 100 97 100 100 98 82 100
48 46 54 51 20 46 86 92 96 96 90 88 90 93 86 77 72 69 80 100 100 100 99 79 82 60 21 15 18 29 100 100 100 99 84 81 60 73 100 100 100 97 100 100 100 100 100 100 100 100 100 100 100 100
52 61 54 23 61 86 87 85 84 83 72 55 45 49 88 90 67 85 99 74 100 100 96 90 78 71 73 17 18 19 42 96 99 90 94 99 74 90 100 100 87 98 99 94 94 100 100 100 100 100 100 100 100 100
68 49 31 78 82 66 47 38 37 41 58 64 64 48 41 80 87 84 94 77 100 100 100 94 80 93 67 26 20 19 26 50 74 100 94 68 66 77 91 100 96 90 82 70 79 74 78 79 71 74 83 88 84 83
40 56 84 76 53 40 47 55 52 53 48 52 51 55 44 36 73 99 99 86 100 100 100 82 92 100 96 34 22 26 41 79 93 75 67 54 70 54 65 80 69 57 54 49 58 67 71 74 65 53 53 58 62 69
84 86 67 43 49 64 56 64 98 80 84 100 94 71 47 39 100 100 88 94 100 100 100 67 79 100 99 46 32 35 57 70 77 87 73 56 51 56 66 74 85 88 76 85 83 65 54 76 85 79 73 66 59 63
96 56 59 57 73 52 71 100 100 88 100 100 100 87 54 100 100 100 99 89 86 93 86 93 100 100 92 30 26 33 34 70 86 97 90 68 61 70 94 94 98 99 98 98 93 90 83 77 76 76 77 78 75 72
92 82 64 66 56 43 64 94 95 95 97 98 80 61 93 100 100 95 84 94 89 92 65 99 100 98 100 74 26 26 42 57 87 100 85 86 99 100 99 100 100 100 97 100 100 100 98 95 93 89 85 81 74 69
83 61 74 62 58 71 80 95 98 100 99 86 98 100 100 96 91 76 62 82 78 86 82 100 99 98 84 88 66 62 80 94 100 98 98 100 100 99 92 88 86 85 82 73 67 56 48 38 38 48 52 52 48 46
72 85 100 63 70 93 86 94 100 100 100 100 100 96 90 76 64 65 65 75 94 87 100 100 100 96 100 100 97 95 91 98 100 100 100 99 84 74 60 48 39 38 40 38 39 39 39 39 42 46 49 52 62 65
72 85 100 80 73 92 100 100 100 100 100 100 95 100 84 72 72 82 99 91 97 95 90 98 92 83 96 99 100 100 100 100 100 91 84 80 66 53 52 57 66 84 91 89 94 98 98 95 95 97 95 96 94 96
79 100 96 84 73 91 95 100 100 99 100 100 92 96 98 91 96 97 97 94 91 89 82 79 81 86 100 100 100 100 98 83 68 72 65 57 54 74 96 100 86 42 24 24 25 27 29 38 62 86 100 100 100 100
82 99 89 94 87 68 77 91 100 99 99 100 100 100 100 98 97 99 77 77 76 72 71 79 88 100 100 100 96 72 57 59 62 64 93 100 100 100 67 30 26 29 32 34 34 34 33 32 32 32 32 32 32 31
87 95 94 100 85 74 85 85 100 100 100 100 100 100 97 100 100 99 86 80 83 86 90 96 99 96 87 75 52 48 53 61 94 100 100 85 36 26 30 34 33 32 32 34 34 34 33 32 32 32 30 27 24 24
96 88 99 82 96 100 100 100 80 81 69 74 81 66 98 100 99 99 99 98 95 92 84 72 55 41 47 56 60 66 94 100 100 74 31 29 34 35 34 35 36 38 38 38 38 37 36 34 28 21 15 13 12 13
86 76 78 83 100 96 100 100 87 65 64 55 51 43 42 58 63 57 61 61 51 42 39 50 54 54 55 86 100 100 98 55 30 34 37 37 37 39 40 41 42 40 40 39 30 20 14 11 10 10 9 9 9 10
76 76 90 81 92 100 100 100 100 93 75 43 30 26 28 27 26 29 34 41 47 48 55 66 95 100 100 100 75 31 34 38 38 39 41 43 44 45 45 43 42 35 22 13 11 10 10 9 9 9 10 11 13 15
100 100 100 100 100 100 100 100 100 100 99 70 50 57 57 57 53 50 46 57 77 98 100 99 78 34 31 37 40 40 41 43 45 47 49 50 51 47 44 34 19 12 11 10 9 9 10 12 16 19 18 18 18 20
99 100 100 100 100 100 96 96 97 99 82 71 65 63 68 77 90 98 100 100 84 47 32 38 40 41 43 44 44 44 47 49 51 52 52 49 47 37 21 13 11 10 9 10 10 12 14 18 23 22 20 20 20 19
80 83 86 90 92 95 94 92 94 97 98 100 100 100 100 100 70 50 36 40 43 43 44 46 48 50 51 51 52 52 51 53 56 53 49 43 26 14 12 11 10 10 11 14 15 16 18 21 25 24 22 21 20 20
66 61 66 75 84 88 89 92 97 100 100 100 99 64 32 36 43 45 47 50 52 54 57 57 58 58 59 59 60 59 58 60 58 53 42 22 14 13 11 10 10 12 16 16 16 18 20 23 26 26 23 22 22 23
52 58 64 70 76 78 82 92 97 100 100 75 32 63 73 68 53 55 58 59 59 62 64 68 70 66 64 65 66 64 66 65 58 45 25 15 14 12 11 13 16 20 20 19 21 23 27 31 30 27 26 25 25 25
47 54 60 64 71 79 89 93 98 100 50 38 91 91 67 58 57 50 49 52 57 60 63 73 78 78 74 71 70 67 70 66 53 25 16 15 12 10 12 16 21 26 28 26 25 26 29 34 38 35 31 28 27 27
44 47 52 62 74 83 96 99 96 38 42 65 57 57 60 44 39 43 40 38 40 43 49 62 76 80 78 77 76 73 72 65 31 17 16 14 11 12 15 23 29 35 39 40 38 33 31 33 38 40 40 38 36 33
40 51 63 66 73 84 84 56 26 40 59 58 60 48 34 35 34 32 30 32 32 34 40 50 74 84 79 82 80 78 74 46 20 18 16 13 13 15 22 32 39 43 46 50 53 53 52 50 48 45 44 44 44 44
50 58 62 55 31 17 24 42 54 57 60 44 29 30 30 27 26 27 29 31 32 38 46 60 88 88 84 87 84 81 60 25 20 19 15 13 14 19 31 39 44 46 49 48 44 39 38 40 43 47 50 51 52 52
59 54 23 13 20 45 56 57 60 48 28 22 22 23 23 25 26 28 32 35 44 50 64 92 94 91 91 90 86 74 35 22 22 18 14 14 15 22 36 44 47 47 43 38 35 36 36 35 35 36 36 37 38 40
24 11 14 25 44 52 46 35 26 20 19 19 20 23 23 24 28 32 38 49 54 66 94 99 98 98 98 92 84 45 25 24 21 16 15 16 20 30 39 44 47 42 35 34 34 33 34 39 44 46 46 44 43 42
10 12 13 15 19 18 16 16 16 17 20 20 21 22 26 33 37 52 56 58 67 90 100 97 96 97 91 84 55 28 27 25 19 16 17 20 27 36 41 43 39 33 34 34 34 40 47 47 47 45 39 37 42 52

GFSWCAN_500_rhum_087.txt.gz
RH
35 20 10 9 8 8 10 19 25 25 31 25 25 98 98 96 94 52 42 24 30 28 21 23 22 22 20 19 18 19 18 20 19 18 14 12 12 29 38 40 34 24 16 29 50 41 16 15 12 12 37 87 100 92
45 37 14 10 9 11 15 26 27 28 34 15 62 100 91 94 92 52 36 23 23 26 21 20 17 16 16 15 18 16 16 18 18 15 28 17 15 34 48 43 35 31 48 61 69 70 64 53 14 23 22 57 88 85
62 48 26 12 12 14 26 29 29 36 27 23 89 98 91 97 94 81 34 15 17 17 25 32 50 45 67 46 27 27 24 20 21 22 40 45 70 64 48 35 46 58 79 99 100 78 68 55 26 17 17 52 73 98
67 51 30 15 18 28 32 32 34 38 21 76 95 97 92 100 94 100 96 62 78 98 89 78 55 67 61 9 9 24 30 57 95 96 83 88 56 65 65 46 73 78 100 100 100 78 95 92 93 100 100 65 57 88
81 51 28 27 30 34 37 36 42 23 61 98 99 99 91 100 98 100 100 93 91 94 100 80 76 82 63 9 14 28 82 100 100 100 99 79 66 56 62 46 80 92 99 98 100 100 100 100 100 100 100 100 99 100
80 44 35 33 40 43 41 45 27 51 94 100 100 98 92 93 92 96 100 100 94 98 100 91 87 80 61 12 16 62 100 100 92 99 100 84 94 67 54 88 100 100 100 100 100 100 100 100 100 100 100 100 100 100
66 38 37 48 49 49 51 29 51 92 100 100 100 95 98 88 74 88 100 81 86 97 100 100 93 92 74 28 15 70 94 100 90 86 96 89 82 73 60 98 100 100 100 98 99 100 100 100 100 97 98 99 100 100
46 47 54 54 55 55 33 63 92 100 100 100 97 82 81 91 85 83 89 72 65 89 97 100 100 76 57 51 18 17 78 100 98 98 90 100 94 58 60 100 94 100 100 91 97 89 87 84 80 67 65 67 65 86
59 59 59 62 51 40 78 93 98 100 100 100 79 61 50 47 59 99 97 73 65 81 96 100 79 80 90 43 19 19 19 60 86 88 90 98 97 76 74 86 89 87 85 70 67 64 81 77 67 66 62 59 65 62
64 67 64 44 68 90 82 61 49 48 50 58 72 70 54 52 48 83 99 70 57 72 93 93 77 100 100 94 31 30 23 23 34 76 91 81 77 70 64 64 66 68 63 62 46 28 40 52 63 67 64 62 66 65
72 56 75 95 73 64 56 73 67 63 96 100 100 44 42 55 54 86 84 58 46 78 94 91 100 99 94 97 46 33 26 31 69 77 78 85 95 80 58 47 41 38 51 49 42 42 49 53 59 65 67 72 71 70
98 98 70 59 68 77 93 61 57 58 77 95 96 80 82 78 100 69 54 50 55 96 90 88 98 100 99 100 42 34 44 55 67 84 81 91 86 81 88 84 62 59 66 67 69 68 68 70 73 72 69 67 66 67
93 88 84 73 60 68 62 82 100 98 100 100 100 100 100 100 97 37 33 44 60 97 77 100 100 100 82 100 80 58 31 34 50 67 85 95 90 92 81 76 79 82 76 62 40 38 39 38 33 33 32 30 28 27
74 80 74 66 77 67 62 85 77 76 96 100 100 100 99 85 41 37 68 65 92 100 80 99 100 99 100 95 94 76 67 81 92 87 84 83 92 79 79 78 59 46 41 39 42 49 64 69 68 72 77 79 78 78
98 87 80 59 67 67 87 95 95 100 100 94 82 82 72 71 65 68 83 88 98 90 65 82 100 100 100 100 98 91 94 92 95 89 84 85 81 71 61 55 48 47 65 80 87 72 34 26 26 26 28 33 47 65
100 95 78 75 84 92 86 84 100 90 90 95 94 100 94 93 77 79 96 100 93 73 79 90 96 93 89 91 100 100 100 99 88 84 82 79 72 63 62 78 93 96 94 71 46 32 30 32 33 33 32 31 31 30
100 100 65 57 53 68 93 100 100 100 100 98 98 98 94 93 91 92 98 96 88 67 79 82 87 99 95 100 100 98 96 88 82 73 64 66 89 92 94 92 52 28 29 34 36 36 36 36 36 36 36 36 35 35
100 100 85 81 96 98 100 100 100 96 95 99 100 100 93 90 83 75 79 79 74 77 76 79 86 96 96 94 89 79 59 51 56 65 90 93 90 47 28 31 36 38 39 39 39 39 38 38 38 37 37 36 34 31
100 100 88 78 90 94 100 100 99 100 100 100 100 100 100 89 88 81 73 72 70 69 76 86 97 88 70 67 57 53 57 72 92 97 89 44 31 36 39 41 43 43 42 43 44 43 43 41 31 20 13 12 11 10
100 98 100 100 99 86 91 92 89 95 97 100 100 100 100 99 81 67 60 62 75 93 88 73 53 42 47 53 54 75 93 87 47 32 35 40 43 45 48 47 47 49 50 49 44 28 15 12 11 10 10 9 9 10
77 93 100 87 98 100 100 98 78 62 59 64 83 94 98 95 89 87 91 89 62 47 40 47 51 50 70 88 71 37 35 39 42 45 46 46 47 48 49 49 49 48 36 20 13 12 11 10 9 9 10 11 14 17
82 91 100 100 95 100 100 77 69 53 42 35 37 43 38 38 40 38 40 40 44 51 56 69 83 53 33 37 42 44 44 45 44 45 46 48 50 50 49 49 36 20 14 13 11 9 9 11 13 14 15 16 19 24
96 100 100 100 100 100 100 100 61 33 26 27 29 33 34 41 47 43 51 53 70 84 60 36 40 43 44 46 47 47 47 48 49 51 53 55 53 54 46 28 17 14 12 10 9 11 15 16 16 16 17 20 24 26
100 100 100 100 100 100 100 100 92 69 64 57 56 54 56 56 57 77 82 54 37 41 44 46 47 51 51 51 53 56 56 54 52 53 54 55 57 44 25 17 15 12 10 10 14 18 20 20 19 19 22 25 27 27
99 97 100 100 100 100 96 94 82 70 65 63 68 78 81 67 45 38 42 47 47 48 53 57 57 59 61 61 58 57 55 55 56 57 60 64 49 24 18 16 13 11 11 17 22 26 28 27 24 23 27 33 32 28
76 83 89 97 98 97 92 91 91 91 94 92 76 33 36 42 46 49 50 50 53 58 60 62 65 66 65 64 63 62 60 61 63 66 70 55 26 19 18 14 12 13 19 27 32 33 36 38 33 29 29 33 37 34
68 74 84 90 96 97 97 97 100 96 68 34 56 69 60 52 52 52 50 52 53 47 44 50 56 59 68 76 74 71 69 70 71 74 64 31 21 20 16 13 13 18 27 34 36 39 44 46 46 46 42 37 37 39
61 74 80 84 86 91 97 100 96 68 65 93 78 56 58 50 42 44 38 38 37 37 41 48 58 63 73 82 79 75 77 78 80 74 39 24 23 19 14 14 16 25 35 40 41 43 44 41 39 40 44 50 52 52
60 66 74 82 88 92 91 94 72 38 69 58 58 59 46 38 37 34 30 32 33 37 41 51 59 73 90 89 82 81 85 83 82 49 27 25 23 17 15 16 20 33 40 43 45 41 36 35 36 36 36 36 37 37
48 60 67 77 85 88 90 65 37 54 58 57 55 39 36 32 30 29 30 33 35 41 48 55 63 83 93 88 85 89 89 88 55 29 28 26 20 17 18 21 34 43 44 44 38 33 33 33 33 34 37 40 42 44
59 65 68 73 72 46 27 38 55 58 58 48 28 28 28 28 26 28 34 36 45 53 56 67 82 95 94 90 90 93 92 63 33 30 28 23 18 20 22 30 42 45 44 38 33 33 33 33 38 45 47 46 46 42
60 63 45 19 20 43 54 57 59 55 34 22 20 22 23 22 25 30 34 49 59 61 74 87 98 99 95 93 96 97 70 36 32 31 25 20 20 23 26 37 42 42 39 35 34 35 36 37 46 48 46 45 42 38
52 21 14 25 43 55 57 53 44 26 18 18 22 23 22 26 30 45 55 65 79 89 97 99 99 95 96 99 100 75 41 36 35 28 21 19 23 26 30 36 40 41 38 36 35 38 40 40 46 50 50 50 48 42